Darstellungsparameter: Aktuell verwendete Einstellungen:
Skalierung der Graphiken ... ?
xyx+y,   Skalierungsfaktor:      Skalierung: Modus: x, Faktor: 1
Darstellungszeitraum ... ?
Vom - - bis: - -   Zeitraum: 25.06.2020 - 01.07.2020
Min/Max/Avg-Anzeige ... ?
Zeige MMA aktuell
Zeige MMA Monat
Zeige MMA alles
Zeige --A aktuell
Zeige --A Monat
Zeige --A alles
Keine MMA-Anzeige
MMA:
Keine MMA-Graphiken
MMA-Basis: 25.06.2020 - 01.07.2020
Quicknavigation für Darstellung... ?
Tage:      1T, 2T, 3T, 5T -1T -2T -3T -5T +1T +2T +3T +5T
Wochen: 1W, 2W, 3W -1W -2W -3W +1W +2W +3W
Monate: 1M, 3M, 6M -1M -3M -6M +1M +3M +6M
Jahre:    1J, 3J, 5J, 10J -1J -3J -5J -10J +1J +3J +5J +10J
Nutze für die Darstellung ... ?
Originaldaten oder Mittelwerte auf ...
Stundenbasis Tagesbasis Wochenbasis
Monatsbasis Jahresbasis      Datenbasis: Original-Daten
Darstellen als:
Statistik (Auto) Statistik J:M      Darstellung:
Zur Graphik,    zurück zur Übersicht aller Sensoren.
 
Tabellarische Datenbersicht: ?
 
Sensor: Nr:Datum:Temp:Feuchte:Taupunkt:
Aussen-T/F 1 25-06-2020 00:00:00 19.2 C 67 % 12.93 C
2 25-06-2020 00:05:00 19.1 C 68 % 13.06 C
3 25-06-2020 00:10:00 19 C 66 % 12.51 C
4 25-06-2020 00:15:00 18.9 C 69 % 13.09 C
5 25-06-2020 00:20:00 18.8 C 69 % 13 C
6 25-06-2020 00:25:00 18.7 C 69 % 12.9 C
7 25-06-2020 00:30:00 18.6 C 69 % 12.8 C
8 25-06-2020 00:35:00 18.5 C 70 % 12.93 C
9 25-06-2020 00:40:00 18.4 C 70 % 12.83 C
10 25-06-2020 00:45:00 18.3 C 71 % 12.95 C
11 25-06-2020 00:50:00 18.2 C 70 % 12.64 C
12 25-06-2020 00:55:00 18.3 C 71 % 12.95 C
13 25-06-2020 01:00:00 18.3 C 70 % 12.74 C
14 25-06-2020 01:05:00 18.3 C 71 % 12.95 C
15 25-06-2020 01:10:00 18.4 C 70 % 12.83 C
16 25-06-2020 01:15:00 18.4 C 70 % 12.83 C
17 25-06-2020 01:20:00 18.4 C 70 % 12.83 C
18 25-06-2020 01:25:00 18.3 C 70 % 12.74 C
19 25-06-2020 01:30:00 18.3 C 71 % 12.95 C
20 25-06-2020 01:35:00 18.1 C 71 % 12.76 C
21 25-06-2020 01:40:00 18.1 C 71 % 12.76 C
22 25-06-2020 01:45:00 18 C 72 % 12.88 C
23 25-06-2020 01:50:00 18 C 72 % 12.88 C
24 25-06-2020 01:55:00 17.9 C 72 % 12.78 C
25 25-06-2020 02:00:00 17.9 C 72 % 12.78 C
Sensor: Nr:Datum:Temp:Feuchte:Taupunkt:
Aussen-T/F 26 25-06-2020 02:05:00 17.7 C 73 % 12.8 C
27 25-06-2020 02:10:00 17.6 C 73 % 12.71 C
28 25-06-2020 02:15:00 17.4 C 74 % 12.72 C
29 25-06-2020 02:20:00 17.3 C 74 % 12.62 C
30 25-06-2020 02:25:00 17.2 C 74 % 12.53 C
31 25-06-2020 02:30:00 17 C 75 % 12.54 C
32 25-06-2020 02:35:00 16.8 C 76 % 12.55 C
33 25-06-2020 02:40:00 16.7 C 76 % 12.45 C
34 25-06-2020 02:45:00 16.6 C 77 % 12.55 C
35 25-06-2020 02:50:00 16.5 C 77 % 12.46 C
36 25-06-2020 02:55:00 16.4 C 78 % 12.56 C
37 25-06-2020 03:00:00 16.3 C 78 % 12.46 C
38 25-06-2020 03:05:00 16.2 C 78 % 12.36 C
39 25-06-2020 03:10:00 16.1 C 79 % 12.46 C
40 25-06-2020 03:15:00 16.1 C 79 % 12.46 C
41 25-06-2020 03:20:00 15.9 C 79 % 12.27 C
42 25-06-2020 03:25:00 15.9 C 80 % 12.46 C
43 25-06-2020 03:30:00 15.8 C 80 % 12.36 C
44 25-06-2020 03:35:00 15.8 C 80 % 12.36 C
45 25-06-2020 03:40:00 15.8 C 80 % 12.36 C
46 25-06-2020 03:45:00 15.8 C 81 % 12.55 C
47 25-06-2020 03:50:00 15.7 C 81 % 12.45 C
48 25-06-2020 03:55:00 15.7 C 81 % 12.45 C
49 25-06-2020 04:00:00 15.6 C 81 % 12.35 C
50 25-06-2020 04:05:00 15.5 C 82 % 12.44 C
Sensor: Nr:Datum:Temp:Feuchte:Taupunkt:
Aussen-T/F 51 25-06-2020 04:10:00 15.4 C 82 % 12.35 C
52 25-06-2020 04:15:00 15.4 C 82 % 12.35 C
53 25-06-2020 04:20:00 15.3 C 82 % 12.25 C
54 25-06-2020 04:25:00 15.3 C 83 % 12.43 C
55 25-06-2020 04:30:00 15.2 C 83 % 12.33 C
56 25-06-2020 04:35:00 15.1 C 83 % 12.24 C
57 25-06-2020 04:40:00 15 C 84 % 12.32 C
58 25-06-2020 04:45:00 14.9 C 84 % 12.22 C
59 25-06-2020 04:50:00 14.9 C 84 % 12.22 C
60 25-06-2020 04:55:00 14.8 C 85 % 12.3 C
61 25-06-2020 05:00:00 14.8 C 85 % 12.3 C
62 25-06-2020 05:05:00 14.7 C 85 % 12.21 C
63 25-06-2020 05:10:00 14.7 C 85 % 12.21 C
64 25-06-2020 05:15:00 14.7 C 86 % 12.38 C
65 25-06-2020 05:20:00 14.6 C 86 % 12.29 C
66 25-06-2020 05:25:00 14.6 C 86 % 12.29 C
67 25-06-2020 05:30:00 14.6 C 87 % 12.46 C
68 25-06-2020 05:35:00 14.6 C 87 % 12.46 C
69 25-06-2020 05:40:00 14.5 C 87 % 12.36 C
70 25-06-2020 05:45:00 14.5 C 87 % 12.36 C
71 25-06-2020 05:50:00 14.5 C 87 % 12.36 C
72 25-06-2020 05:55:00 14.5 C 88 % 12.54 C
73 25-06-2020 06:00:00 14.5 C 88 % 12.54 C
74 25-06-2020 06:05:00 14.5 C 88 % 12.54 C
75 25-06-2020 06:10:00 14.5 C 88 % 12.54 C
Sensor: Nr:Datum:Temp:Feuchte:Taupunkt:
Aussen-T/F 76 25-06-2020 06:15:00 14.6 C 88 % 12.64 C
77 25-06-2020 06:20:00 14.6 C 88 % 12.64 C
78 25-06-2020 06:25:00 14.6 C 88 % 12.64 C
79 25-06-2020 06:30:00 14.7 C 88 % 12.73 C
80 25-06-2020 06:35:00 14.7 C 89 % 12.91 C
81 25-06-2020 06:40:00 14.7 C 89 % 12.91 C
82 25-06-2020 06:45:00 14.8 C 89 % 13.01 C
83 25-06-2020 06:50:00 14.9 C 89 % 13.1 C
84 25-06-2020 06:55:00 15 C 89 % 13.2 C
85 25-06-2020 07:00:00 15.2 C 88 % 13.23 C
86 25-06-2020 07:05:00 15.3 C 88 % 13.33 C
87 25-06-2020 07:10:00 15.6 C 88 % 13.62 C
88 25-06-2020 07:15:00 15.8 C 87 % 13.64 C
89 25-06-2020 07:20:00 15.9 C 87 % 13.74 C
90 25-06-2020 07:25:00 16 C 86 % 13.66 C
91 25-06-2020 07:30:00 16.1 C 86 % 13.76 C
92 25-06-2020 07:35:00 16.1 C 86 % 13.76 C
93 25-06-2020 07:40:00 16.1 C 86 % 13.76 C
94 25-06-2020 07:45:00 16.2 C 86 % 13.86 C
95 25-06-2020 07:50:00 16.2 C 86 % 13.86 C
96 25-06-2020 07:55:00 16.3 C 86 % 13.95 C
97 25-06-2020 08:00:00 16.4 C 85 % 13.87 C
98 25-06-2020 08:05:00 16.6 C 86 % 14.25 C
99 25-06-2020 08:10:00 16.8 C 84 % 14.08 C
100 25-06-2020 08:15:00 17 C 84 % 14.28 C
Sensor: Nr:Datum:Temp:Feuchte:Taupunkt:
Aussen-T/F 101 25-06-2020 08:20:00 17.2 C 84 % 14.47 C
102 25-06-2020 08:25:00 17.2 C 84 % 14.47 C
103 25-06-2020 08:30:00 17.3 C 83 % 14.39 C
104 25-06-2020 08:35:00 17.4 C 83 % 14.48 C
105 25-06-2020 08:40:00 17.5 C 83 % 14.58 C
106 25-06-2020 08:45:00 17.7 C 83 % 14.78 C
107 25-06-2020 08:50:00 17.9 C 82 % 14.78 C
108 25-06-2020 08:55:00 18.1 C 80 % 14.6 C
109 25-06-2020 09:00:00 18.3 C 81 % 14.98 C
110 25-06-2020 09:05:00 18.6 C 81 % 15.28 C
111 25-06-2020 09:10:00 18.8 C 78 % 14.88 C
112 25-06-2020 09:15:00 19.1 C 75 % 14.57 C
113 25-06-2020 09:20:00 19.6 C 73 % 14.63 C
114 25-06-2020 09:25:00 20.2 C 72 % 14.99 C
115 25-06-2020 09:30:00 20.5 C 69 % 14.62 C
116 25-06-2020 09:35:00 20.9 C 69 % 15 C
117 25-06-2020 09:40:00 21.2 C 67 % 14.83 C
118 25-06-2020 09:45:00 21.4 C 66 % 14.79 C
119 25-06-2020 09:50:00 21.7 C 65 % 14.84 C
120 25-06-2020 09:55:00 21.8 C 64 % 14.69 C
121 25-06-2020 10:00:00 22.1 C 65 % 15.21 C
122 25-06-2020 10:05:00 22.2 C 64 % 15.07 C
123 25-06-2020 10:10:00 22.4 C 62 % 14.76 C
124 25-06-2020 10:15:00 22.7 C 62 % 15.05 C
125 25-06-2020 10:20:00 23.1 C 60 % 14.91 C
Sensor: Nr:Datum:Temp:Feuchte:Taupunkt:
Aussen-T/F 126 25-06-2020 10:25:00 23.3 C 61 % 15.36 C
127 25-06-2020 10:30:00 23.6 C 60 % 15.38 C
128 25-06-2020 10:35:00 23.8 C 59 % 15.31 C
129 25-06-2020 10:40:00 24.1 C 58 % 15.32 C
130 25-06-2020 10:45:00 24.2 C 59 % 15.68 C
131 25-06-2020 10:50:00 24.2 C 57 % 15.14 C
132 25-06-2020 10:55:00 24.3 C 58 % 15.51 C
133 25-06-2020 11:00:00 24.4 C 57 % 15.33 C
134 25-06-2020 11:05:00 24.4 C 57 % 15.33 C
135 25-06-2020 11:10:00 24.5 C 58 % 15.7 C
136 25-06-2020 11:15:00 24.6 C 57 % 15.52 C
137 25-06-2020 11:20:00 24.6 C 56 % 15.24 C
138 25-06-2020 11:25:00 24.8 C 56 % 15.43 C
139 25-06-2020 11:30:00 24.8 C 55 % 15.15 C
140 25-06-2020 11:35:00 24.7 C 56 % 15.33 C
141 25-06-2020 11:40:00 24.8 C 56 % 15.43 C
142 25-06-2020 11:45:00 24.8 C 56 % 15.43 C
143 25-06-2020 11:50:00 24.8 C 57 % 15.7 C
144 25-06-2020 11:55:00 24.9 C 56 % 15.52 C
145 25-06-2020 12:00:00 25 C 56 % 15.61 C
146 25-06-2020 12:05:00 25.1 C 55 % 15.43 C
147 25-06-2020 12:10:00 25.2 C 55 % 15.52 C
148 25-06-2020 12:15:00 25.3 C 54 % 15.33 C
149 25-06-2020 12:20:00 25.3 C 54 % 15.33 C
150 25-06-2020 12:25:00 25.3 C 54 % 15.33 C
Sensor: Nr:Datum:Temp:Feuchte:Taupunkt:
Aussen-T/F 151 25-06-2020 12:30:00 25.4 C 55 % 15.7 C
152 25-06-2020 12:35:00 25.5 C 54 % 15.51 C
153 25-06-2020 12:40:00 25.7 C 53 % 15.4 C
154 25-06-2020 12:45:00 25.8 C 53 % 15.5 C
155 25-06-2020 12:50:00 25.9 C 53 % 15.59 C
156 25-06-2020 12:55:00 26 C 52 % 15.38 C
157 25-06-2020 13:00:00 26.1 C 52 % 15.48 C
158 25-06-2020 13:05:00 26.2 C 53 % 15.87 C
159 25-06-2020 13:10:00 26.3 C 51 % 15.36 C
160 25-06-2020 13:15:00 26.3 C 52 % 15.66 C
161 25-06-2020 13:20:00 26.4 C 53 % 16.05 C
162 25-06-2020 13:25:00 26.7 C 53 % 16.33 C
163 25-06-2020 13:30:00 27.1 C 51 % 16.09 C
164 25-06-2020 13:35:00 27.2 C 51 % 16.18 C
165 25-06-2020 13:40:00 27.1 C 51 % 16.09 C
166 25-06-2020 13:45:00 27.1 C 51 % 16.09 C
167 25-06-2020 13:50:00 27.3 C 50 % 15.97 C
168 25-06-2020 13:55:00 27.3 C 52 % 16.58 C
169 25-06-2020 14:00:00 27.4 C 52 % 16.67 C
170 25-06-2020 14:05:00 27.4 C 51 % 16.37 C
171 25-06-2020 14:10:00 27.3 C 50 % 15.97 C
172 25-06-2020 14:15:00 27.3 C 50 % 15.97 C
173 25-06-2020 14:20:00 27.4 C 49 % 15.74 C
174 25-06-2020 14:25:00 27.3 C 51 % 16.28 C
175 25-06-2020 14:30:00 27 C 52 % 16.3 C
Sensor: Nr:Datum:Temp:Feuchte:Taupunkt:
Aussen-T/F 176 25-06-2020 14:35:00 26.8 C 52 % 16.12 C
177 25-06-2020 14:40:00 26.8 C 54 % 16.71 C
178 25-06-2020 14:45:00 26.7 C 53 % 16.33 C
179 25-06-2020 14:50:00 26.6 C 53 % 16.23 C
180 25-06-2020 14:55:00 26.6 C 55 % 16.82 C
181 25-06-2020 15:00:00 26.5 C 54 % 16.44 C
182 25-06-2020 15:05:00 26.5 C 55 % 16.72 C
183 25-06-2020 15:10:00 26.6 C 55 % 16.82 C
184 25-06-2020 15:15:00 26.7 C 55 % 16.91 C
185 25-06-2020 15:20:00 26.8 C 55 % 17 C
186 25-06-2020 15:25:00 26.9 C 56 % 17.38 C
187 25-06-2020 15:30:00 27.1 C 55 % 17.28 C
188 25-06-2020 15:35:00 27 C 55 % 17.19 C
189 25-06-2020 15:40:00 26.8 C 55 % 17 C
190 25-06-2020 15:45:00 26.7 C 55 % 16.91 C
191 25-06-2020 15:50:00 26.6 C 56 % 17.1 C
192 25-06-2020 15:55:00 26.6 C 57 % 17.38 C
193 25-06-2020 16:00:00 26.6 C 57 % 17.38 C
194 25-06-2020 16:05:00 26.5 C 57 % 17.29 C
195 25-06-2020 16:10:00 26.3 C 57 % 17.1 C
196 25-06-2020 16:15:00 26.2 C 58 % 17.28 C
197 25-06-2020 16:20:00 26.1 C 58 % 17.19 C
198 25-06-2020 16:25:00 25.9 C 59 % 17.27 C
199 25-06-2020 16:30:00 25.9 C 60 % 17.54 C
200 25-06-2020 16:35:00 25.9 C 59 % 17.27 C
Sensor: Nr:Datum:Temp:Feuchte:Taupunkt:
Aussen-T/F 201 25-06-2020 16:40:00 26 C 60 % 17.63 C
202 25-06-2020 16:45:00 26.1 C 59 % 17.46 C
203 25-06-2020 16:50:00 26.1 C 59 % 17.46 C
204 25-06-2020 16:55:00 26.2 C 59 % 17.55 C
205 25-06-2020 17:00:00 26.3 C 59 % 17.65 C
206 25-06-2020 17:05:00 26.2 C 59 % 17.55 C
207 25-06-2020 17:10:00 26.2 C 60 % 17.82 C
208 25-06-2020 17:15:00 26.1 C 60 % 17.73 C
209 25-06-2020 17:20:00 26.1 C 60 % 17.73 C
210 25-06-2020 17:25:00 26.1 C 60 % 17.73 C
211 25-06-2020 17:30:00 26.1 C 59 % 17.46 C
212 25-06-2020 17:35:00 26.2 C 59 % 17.55 C
213 25-06-2020 17:40:00 26.2 C 58 % 17.28 C
214 25-06-2020 17:45:00 26.3 C 60 % 17.91 C
215 25-06-2020 17:50:00 26.4 C 59 % 17.74 C
216 25-06-2020 17:55:00 26.5 C 59 % 17.83 C
217 25-06-2020 18:00:00 26.6 C 59 % 17.93 C
218 25-06-2020 18:05:00 26.7 C 59 % 18.02 C
219 25-06-2020 18:10:00 26.6 C 59 % 17.93 C
220 25-06-2020 18:15:00 26.8 C 58 % 17.84 C
221 25-06-2020 18:20:00 26.7 C 58 % 17.75 C
222 25-06-2020 18:25:00 26.4 C 59 % 17.74 C
223 25-06-2020 18:30:00 26.2 C 60 % 17.82 C
224 25-06-2020 18:35:00 26.1 C 60 % 17.73 C
225 25-06-2020 18:40:00 26.3 C 60 % 17.91 C
Sensor: Nr:Datum:Temp:Feuchte:Taupunkt:
Aussen-T/F 226 25-06-2020 18:45:00 26.9 C 61 % 18.74 C
227 25-06-2020 18:50:00 27.2 C 58 % 18.22 C
228 25-06-2020 18:55:00 27.5 C 57 % 18.22 C
229 25-06-2020 19:00:00 27.9 C 56 % 18.31 C
230 25-06-2020 19:05:00 28.1 C 54 % 17.92 C
231 25-06-2020 19:10:00 28.3 C 53 % 17.8 C
232 25-06-2020 19:15:00 28.1 C 54 % 17.92 C
233 25-06-2020 19:20:00 28.1 C 55 % 18.21 C
234 25-06-2020 19:25:00 28.1 C 54 % 17.92 C
235 25-06-2020 19:30:00 27.7 C 54 % 17.55 C
236 25-06-2020 19:35:00 27.6 C 55 % 17.74 C
237 25-06-2020 19:40:00 27.4 C 54 % 17.27 C
238 25-06-2020 19:45:00 27.1 C 54 % 16.99 C
239 25-06-2020 19:50:00 26.9 C 55 % 17.09 C
240 25-06-2020 19:55:00 26.7 C 56 % 17.19 C
241 25-06-2020 20:00:00 26.7 C 56 % 17.19 C
242 25-06-2020 20:05:00 26.7 C 56 % 17.19 C
243 25-06-2020 20:10:00 26.6 C 57 % 17.38 C
244 25-06-2020 20:15:00 26.7 C 56 % 17.19 C
245 25-06-2020 20:20:00 26.8 C 56 % 17.29 C
246 25-06-2020 20:25:00 26.8 C 56 % 17.29 C
247 25-06-2020 20:30:00 26.8 C 56 % 17.29 C
248 25-06-2020 20:35:00 26.7 C 56 % 17.19 C
249 25-06-2020 20:40:00 26.6 C 57 % 17.38 C
250 25-06-2020 20:45:00 26.6 C 57 % 17.38 C
Sensor: Nr:Datum:Temp:Feuchte:Taupunkt:
Aussen-T/F 251 25-06-2020 20:50:00 26.6 C 56 % 17.1 C
252 25-06-2020 20:55:00 26.4 C 61 % 18.27 C
253 25-06-2020 21:00:00 26.3 C 62 % 18.44 C
254 25-06-2020 21:05:00 26.1 C 62 % 18.25 C
255 25-06-2020 21:10:00 25.9 C 63 % 18.31 C
256 25-06-2020 21:15:00 25.5 C 63 % 17.94 C
257 25-06-2020 21:20:00 25.2 C 64 % 17.9 C
258 25-06-2020 21:25:00 24.8 C 65 % 17.77 C
259 25-06-2020 21:30:00 24.4 C 66 % 17.64 C
260 25-06-2020 21:35:00 24.1 C 67 % 17.59 C
261 25-06-2020 21:40:00 23.8 C 68 % 17.54 C
262 25-06-2020 21:45:00 23.6 C 69 % 17.58 C
263 25-06-2020 21:50:00 23.3 C 69 % 17.29 C
264 25-06-2020 21:55:00 23 C 70 % 17.23 C
265 25-06-2020 22:00:00 22.7 C 70 % 16.95 C
266 25-06-2020 22:05:00 22.5 C 70 % 16.76 C
267 25-06-2020 22:10:00 22.3 C 70 % 16.56 C
268 25-06-2020 22:15:00 22 C 70 % 16.28 C
269 25-06-2020 22:20:00 21.8 C 71 % 16.31 C
270 25-06-2020 22:25:00 21.6 C 71 % 16.12 C
271 25-06-2020 22:30:00 21.4 C 72 % 16.14 C
272 25-06-2020 22:35:00 21.2 C 72 % 15.95 C
273 25-06-2020 22:40:00 20.9 C 73 % 15.88 C
274 25-06-2020 22:45:00 20.8 C 73 % 15.78 C
275 25-06-2020 22:50:00 20.6 C 74 % 15.8 C
Sensor: Nr:Datum:Temp:Feuchte:Taupunkt:
Aussen-T/F 276 25-06-2020 22:55:00 20.4 C 74 % 15.61 C
277 25-06-2020 23:00:00 20.3 C 75 % 15.72 C
278 25-06-2020 23:05:00 20.2 C 76 % 15.83 C
279 25-06-2020 23:10:00 20 C 76 % 15.64 C
280 25-06-2020 23:15:00 19.9 C 76 % 15.54 C
281 25-06-2020 23:20:00 19.8 C 76 % 15.45 C
282 25-06-2020 23:25:00 19.7 C 77 % 15.56 C
283 25-06-2020 23:30:00 19.6 C 77 % 15.46 C
284 25-06-2020 23:35:00 19.4 C 78 % 15.47 C
285 25-06-2020 23:40:00 19.2 C 78 % 15.27 C
286 25-06-2020 23:45:00 19.1 C 79 % 15.37 C
287 25-06-2020 23:50:00 19 C 79 % 15.28 C
288 25-06-2020 23:55:00 18.9 C 80 % 15.38 C
289 26-06-2020 00:00:00 18.8 C 80 % 15.28 C
290 26-06-2020 00:05:00 18.6 C 80 % 15.08 C
291 26-06-2020 00:10:00 18.5 C 80 % 14.99 C
292 26-06-2020 00:15:00 18.4 C 81 % 15.08 C
293 26-06-2020 00:20:00 18.3 C 81 % 14.98 C
294 26-06-2020 00:25:00 18.2 C 81 % 14.89 C
295 26-06-2020 00:30:00 18 C 82 % 14.88 C
296 26-06-2020 00:35:00 17.9 C 82 % 14.78 C
297 26-06-2020 00:40:00 17.7 C 82 % 14.59 C
298 26-06-2020 00:45:00 17.6 C 82 % 14.49 C
299 26-06-2020 00:50:00 17.4 C 83 % 14.48 C
300 26-06-2020 00:55:00 17.3 C 83 % 14.39 C
Sensor: Nr:Datum:Temp:Feuchte:Taupunkt:
Aussen-T/F 301 26-06-2020 01:00:00 17.2 C 83 % 14.29 C
302 26-06-2020 01:05:00 17.1 C 83 % 14.19 C
303 26-06-2020 01:10:00 16.9 C 84 % 14.18 C
304 26-06-2020 01:15:00 16.8 C 84 % 14.08 C
305 26-06-2020 01:20:00 16.7 C 84 % 13.98 C
306 26-06-2020 01:25:00 16.6 C 85 % 14.07 C
307 26-06-2020 01:30:00 16.5 C 85 % 13.97 C
308 26-06-2020 01:35:00 16.3 C 85 % 13.77 C
309 26-06-2020 01:40:00 16.3 C 86 % 13.95 C
310 26-06-2020 01:45:00 16.2 C 86 % 13.86 C
311 26-06-2020 01:50:00 16.1 C 86 % 13.76 C
312 26-06-2020 01:55:00 16.1 C 87 % 13.94 C
313 26-06-2020 02:00:00 16 C 87 % 13.84 C
314 26-06-2020 02:05:00 15.9 C 87 % 13.74 C
315 26-06-2020 02:10:00 15.9 C 87 % 13.74 C
316 26-06-2020 02:15:00 15.8 C 87 % 13.64 C
317 26-06-2020 02:20:00 15.8 C 87 % 13.64 C
318 26-06-2020 02:25:00 15.7 C 88 % 13.72 C
319 26-06-2020 02:30:00 15.7 C 88 % 13.72 C
320 26-06-2020 02:35:00 15.7 C 88 % 13.72 C
321 26-06-2020 02:40:00 15.6 C 88 % 13.62 C
322 26-06-2020 02:45:00 15.6 C 88 % 13.62 C
323 26-06-2020 02:50:00 15.6 C 88 % 13.62 C
324 26-06-2020 02:55:00 15.5 C 88 % 13.52 C
325 26-06-2020 03:00:00 15.4 C 88 % 13.42 C
Sensor: Nr:Datum:Temp:Feuchte:Taupunkt:
Aussen-T/F 326 26-06-2020 03:05:00 15.4 C 88 % 13.42 C
327 26-06-2020 03:10:00 15.3 C 88 % 13.33 C
328 26-06-2020 03:15:00 15.3 C 88 % 13.33 C
329 26-06-2020 03:20:00 15.2 C 89 % 13.4 C
330 26-06-2020 03:25:00 15.1 C 89 % 13.3 C
331 26-06-2020 03:30:00 15.1 C 89 % 13.3 C
332 26-06-2020 03:35:00 14.9 C 89 % 13.1 C
333 26-06-2020 03:40:00 14.8 C 89 % 13.01 C
334 26-06-2020 03:45:00 14.8 C 89 % 13.01 C
335 26-06-2020 03:50:00 14.7 C 89 % 12.91 C
336 26-06-2020 03:55:00 14.7 C 90 % 13.08 C
337 26-06-2020 04:00:00 14.7 C 90 % 13.08 C
338 26-06-2020 04:05:00 14.7 C 90 % 13.08 C
339 26-06-2020 04:10:00 14.7 C 90 % 13.08 C
340 26-06-2020 04:15:00 14.6 C 90 % 12.98 C
341 26-06-2020 04:20:00 14.5 C 90 % 12.88 C
342 26-06-2020 04:25:00 14.4 C 91 % 12.95 C
343 26-06-2020 04:30:00 14.4 C 90 % 12.78 C
344 26-06-2020 04:35:00 14.3 C 91 % 12.85 C
345 26-06-2020 04:40:00 14.3 C 91 % 12.85 C
346 26-06-2020 04:45:00 14.3 C 91 % 12.85 C
347 26-06-2020 04:50:00 14.2 C 91 % 12.75 C
348 26-06-2020 04:55:00 14.1 C 91 % 12.65 C
349 26-06-2020 05:00:00 14.1 C 91 % 12.65 C
350 26-06-2020 05:05:00 14.1 C 92 % 12.82 C
Sensor: Nr:Datum:Temp:Feuchte:Taupunkt:
Aussen-T/F 351 26-06-2020 05:10:00 14.1 C 91 % 12.65 C
352 26-06-2020 05:15:00 14 C 91 % 12.56 C
353 26-06-2020 05:20:00 13.9 C 91 % 12.46 C
354 26-06-2020 05:25:00 13.8 C 92 % 12.52 C
355 26-06-2020 05:30:00 13.8 C 92 % 12.52 C
356 26-06-2020 05:35:00 13.8 C 92 % 12.52 C
357 26-06-2020 05:40:00 13.8 C 92 % 12.52 C
358 26-06-2020 05:45:00 13.8 C 92 % 12.52 C
359 26-06-2020 05:50:00 13.7 C 92 % 12.42 C
360 26-06-2020 05:55:00 13.7 C 92 % 12.42 C
361 26-06-2020 06:00:00 13.7 C 92 % 12.42 C
362 26-06-2020 06:05:00 13.7 C 93 % 12.59 C
363 26-06-2020 06:10:00 13.7 C 93 % 12.59 C
364 26-06-2020 06:15:00 13.7 C 93 % 12.59 C
365 26-06-2020 06:20:00 13.7 C 93 % 12.59 C
366 26-06-2020 06:25:00 13.8 C 93 % 12.69 C
367 26-06-2020 06:30:00 13.8 C 93 % 12.69 C
368 26-06-2020 06:35:00 13.8 C 93 % 12.69 C
369 26-06-2020 06:40:00 13.9 C 93 % 12.79 C
370 26-06-2020 06:45:00 13.9 C 93 % 12.79 C
371 26-06-2020 06:50:00 14 C 93 % 12.89 C
372 26-06-2020 06:55:00 14.1 C 94 % 13.15 C
373 26-06-2020 07:00:00 14.2 C 94 % 13.25 C
374 26-06-2020 07:05:00 14.2 C 94 % 13.25 C
375 26-06-2020 07:10:00 14.3 C 94 % 13.35 C
Sensor: Nr:Datum:Temp:Feuchte:Taupunkt:
Aussen-T/F 376 26-06-2020 07:15:00 14.4 C 94 % 13.45 C
377 26-06-2020 07:20:00 14.4 C 94 % 13.45 C
378 26-06-2020 07:25:00 14.6 C 94 % 13.65 C
379 26-06-2020 07:30:00 14.6 C 94 % 13.65 C
380 26-06-2020 07:35:00 14.7 C 94 % 13.74 C
381 26-06-2020 07:40:00 14.7 C 94 % 13.74 C
382 26-06-2020 07:45:00 14.8 C 94 % 13.84 C
383 26-06-2020 07:50:00 14.9 C 94 % 13.94 C
384 26-06-2020 07:55:00 15 C 94 % 14.04 C
385 26-06-2020 08:00:00 15.1 C 94 % 14.14 C
386 26-06-2020 08:05:00 15.2 C 94 % 14.24 C
387 26-06-2020 08:10:00 15.3 C 94 % 14.34 C
388 26-06-2020 08:15:00 15.4 C 94 % 14.44 C
389 26-06-2020 08:20:00 15.6 C 94 % 14.64 C
390 26-06-2020 08:25:00 15.7 C 94 % 14.74 C
391 26-06-2020 08:30:00 15.9 C 93 % 14.77 C
392 26-06-2020 08:35:00 16 C 93 % 14.87 C
393 26-06-2020 08:40:00 16.2 C 93 % 15.07 C
394 26-06-2020 08:45:00 16.3 C 92 % 15 C
395 26-06-2020 08:50:00 16.5 C 92 % 15.2 C
396 26-06-2020 08:55:00 16.7 C 91 % 15.22 C
397 26-06-2020 09:00:00 16.8 C 91 % 15.32 C
398 26-06-2020 09:05:00 17 C 90 % 15.35 C
399 26-06-2020 09:10:00 17.2 C 90 % 15.55 C
400 26-06-2020 09:15:00 17.3 C 89 % 15.47 C
Sensor: Nr:Datum:Temp:Feuchte:Taupunkt:
Aussen-T/F 401 26-06-2020 09:20:00 17.6 C 88 % 15.59 C
402 26-06-2020 09:25:00 18 C 85 % 15.44 C
403 26-06-2020 09:30:00 18.7 C 84 % 15.94 C
404 26-06-2020 09:35:00 18.9 C 83 % 15.95 C
405 26-06-2020 09:40:00 19.1 C 83 % 16.15 C
406 26-06-2020 09:45:00 19.2 C 82 % 16.05 C
407 26-06-2020 09:50:00 19.5 C 79 % 15.76 C
408 26-06-2020 09:55:00 20.2 C 75 % 15.63 C
409 26-06-2020 10:00:00 20.8 C 74 % 16 C
410 26-06-2020 10:05:00 21.7 C 73 % 16.65 C
411 26-06-2020 10:10:00 22.1 C 69 % 16.15 C
412 26-06-2020 10:15:00 22.4 C 70 % 16.66 C
413 26-06-2020 10:20:00 22.7 C 67 % 16.26 C
414 26-06-2020 10:25:00 23.1 C 69 % 17.1 C
415 26-06-2020 10:30:00 23.4 C 65 % 16.45 C
416 26-06-2020 10:35:00 23.9 C 63 % 16.43 C
417 26-06-2020 10:40:00 24.3 C 59 % 15.78 C
418 26-06-2020 10:45:00 24.6 C 58 % 15.79 C
419 26-06-2020 10:50:00 24.8 C 57 % 15.7 C
420 26-06-2020 10:55:00 25.1 C 57 % 15.98 C
421 26-06-2020 11:00:00 25.3 C 55 % 15.61 C
422 26-06-2020 11:05:00 25.4 C 53 % 15.13 C
423 26-06-2020 11:10:00 25.6 C 53 % 15.31 C
424 26-06-2020 11:15:00 25.7 C 53 % 15.4 C
425 26-06-2020 11:20:00 25.9 C 53 % 15.59 C
Sensor: Nr:Datum:Temp:Feuchte:Taupunkt:
Aussen-T/F 426 26-06-2020 11:25:00 26.1 C 51 % 15.17 C
427 26-06-2020 11:30:00 26.2 C 49 % 14.64 C
428 26-06-2020 11:35:00 26.2 C 52 % 15.57 C
429 26-06-2020 11:40:00 26.2 C 51 % 15.27 C
430 26-06-2020 11:45:00 26.3 C 50 % 15.05 C
431 26-06-2020 11:50:00 26.4 C 49 % 14.83 C
432 26-06-2020 11:55:00 26.4 C 49 % 14.83 C
433 26-06-2020 12:00:00 26.4 C 48 % 14.51 C
434 26-06-2020 12:05:00 26.4 C 48 % 14.51 C
435 26-06-2020 12:10:00 26.4 C 49 % 14.83 C
436 26-06-2020 12:15:00 26.5 C 48 % 14.6 C
437 26-06-2020 12:20:00 26.6 C 47 % 14.36 C
438 26-06-2020 12:25:00 26.7 C 47 % 14.45 C
439 26-06-2020 12:30:00 26.8 C 46 % 14.21 C
440 26-06-2020 12:35:00 26.8 C 48 % 14.87 C
441 26-06-2020 12:40:00 26.8 C 48 % 14.87 C
442 26-06-2020 12:45:00 26.8 C 47 % 14.55 C
443 26-06-2020 12:50:00 26.8 C 47 % 14.55 C
444 26-06-2020 12:55:00 26.8 C 46 % 14.21 C
445 26-06-2020 13:00:00 26.9 C 46 % 14.3 C
446 26-06-2020 13:05:00 27 C 48 % 15.05 C
447 26-06-2020 13:10:00 26.9 C 47 % 14.64 C
448 26-06-2020 13:15:00 27 C 48 % 15.05 C
449 26-06-2020 13:20:00 27.1 C 48 % 15.15 C
450 26-06-2020 13:25:00 27.2 C 48 % 15.24 C
Sensor: Nr:Datum:Temp:Feuchte:Taupunkt:
Aussen-T/F 451 26-06-2020 13:30:00 27.2 C 47 % 14.91 C
452 26-06-2020 13:35:00 27.3 C 47 % 15 C
453 26-06-2020 13:40:00 27.6 C 47 % 15.27 C
454 26-06-2020 13:45:00 27.6 C 49 % 15.92 C
455 26-06-2020 13:50:00 27.8 C 49 % 16.11 C
456 26-06-2020 13:55:00 27.8 C 46 % 15.12 C
457 26-06-2020 14:00:00 27.8 C 47 % 15.45 C
458 26-06-2020 14:05:00 27.8 C 46 % 15.12 C
459 26-06-2020 14:10:00 27.9 C 47 % 15.55 C
460 26-06-2020 14:15:00 28 C 47 % 15.64 C
461 26-06-2020 14:20:00 28.2 C 48 % 16.15 C
462 26-06-2020 14:25:00 28.4 C 46 % 15.66 C
463 26-06-2020 14:30:00 28.6 C 45 % 15.5 C
464 26-06-2020 14:35:00 28.7 C 47 % 16.27 C
465 26-06-2020 14:40:00 28.8 C 45 % 15.68 C
466 26-06-2020 14:45:00 28.9 C 44 % 15.42 C
467 26-06-2020 14:50:00 29.1 C 46 % 16.3 C
468 26-06-2020 14:55:00 29.4 C 45 % 16.23 C
469 26-06-2020 15:00:00 29.6 C 43 % 15.69 C
470 26-06-2020 15:05:00 29.7 C 43 % 15.78 C
471 26-06-2020 15:10:00 29.7 C 42 % 15.42 C
472 26-06-2020 15:15:00 29.6 C 42 % 15.33 C
473 26-06-2020 15:20:00 29.6 C 43 % 15.69 C
474 26-06-2020 15:25:00 29.8 C 43 % 15.87 C
475 26-06-2020 15:30:00 30.2 C 45 % 16.95 C
Sensor: Nr:Datum:Temp:Feuchte:Taupunkt:
Aussen-T/F 476 26-06-2020 15:35:00 30.3 C 42 % 15.95 C
477 26-06-2020 15:40:00 30.6 C 41 % 15.85 C
478 26-06-2020 15:45:00 30.8 C 40 % 15.64 C
479 26-06-2020 15:50:00 30.9 C 43 % 16.86 C
480 26-06-2020 15:55:00 31.1 C 41 % 16.29 C
481 26-06-2020 16:00:00 31.2 C 40 % 15.99 C
482 26-06-2020 16:05:00 31.5 C 41 % 16.65 C
483 26-06-2020 16:10:00 31.8 C 40 % 16.53 C
484 26-06-2020 16:15:00 31.8 C 38 % 15.72 C
485 26-06-2020 16:20:00 31.5 C 40 % 16.26 C
486 26-06-2020 16:25:00 31.6 C 39 % 15.95 C
487 26-06-2020 16:30:00 31.6 C 39 % 15.95 C
488 26-06-2020 16:35:00 31.7 C 42 % 17.21 C
489 26-06-2020 16:40:00 32.1 C 37 % 15.57 C
490 26-06-2020 16:45:00 32 C 37 % 15.48 C
491 26-06-2020 16:50:00 31.9 C 38 % 15.81 C
492 26-06-2020 16:55:00 31.8 C 40 % 16.53 C
493 26-06-2020 17:00:00 31.9 C 40 % 16.62 C
494 26-06-2020 17:05:00 31.9 C 40 % 16.62 C
495 26-06-2020 17:10:00 31.8 C 39 % 16.13 C
496 26-06-2020 17:15:00 31.7 C 39 % 16.04 C
497 26-06-2020 17:20:00 31.7 C 38 % 15.64 C
498 26-06-2020 17:25:00 31.6 C 38 % 15.55 C
499 26-06-2020 17:30:00 31.2 C 38 % 15.19 C
500 26-06-2020 17:35:00 30.9 C 39 % 15.33 C
Sensor: Nr:Datum:Temp:Feuchte:Taupunkt:
Aussen-T/F 501 26-06-2020 17:40:00 30.8 C 45 % 17.49 C
502 26-06-2020 17:45:00 30.7 C 50 % 19.08 C
503 26-06-2020 17:50:00 30.4 C 50 % 18.8 C
504 26-06-2020 17:55:00 30.2 C 51 % 18.94 C
505 26-06-2020 18:00:00 29.8 C 51 % 18.57 C
506 26-06-2020 18:05:00 29.3 C 52 % 18.42 C
507 26-06-2020 18:10:00 29 C 52 % 18.15 C
508 26-06-2020 18:15:00 28.7 C 54 % 18.47 C
509 26-06-2020 18:20:00 28.4 C 55 % 18.49 C
510 26-06-2020 18:25:00 28.1 C 55 % 18.21 C
511 26-06-2020 18:30:00 27.9 C 58 % 18.87 C
512 26-06-2020 18:35:00 27.6 C 56 % 18.03 C
513 26-06-2020 18:40:00 27.3 C 55 % 17.47 C
514 26-06-2020 18:45:00 27.1 C 56 % 17.57 C
515 26-06-2020 18:50:00 26.9 C 59 % 18.21 C
516 26-06-2020 18:55:00 26.7 C 61 % 18.55 C
517 26-06-2020 19:00:00 26.4 C 62 % 18.53 C
518 26-06-2020 19:05:00 26.1 C 63 % 18.5 C
519 26-06-2020 19:10:00 25.8 C 61 % 17.71 C
520 26-06-2020 19:15:00 25.7 C 60 % 17.35 C
521 26-06-2020 19:20:00 25.6 C 59 % 16.99 C
522 26-06-2020 19:25:00 25.6 C 58 % 16.72 C
523 26-06-2020 19:30:00 25.3 C 58 % 16.44 C
524 26-06-2020 19:35:00 25.1 C 59 % 16.52 C
525 26-06-2020 19:40:00 24.9 C 61 % 16.86 C
Sensor: Nr:Datum:Temp:Feuchte:Taupunkt:
Aussen-T/F 526 26-06-2020 19:45:00 24.5 C 63 % 16.99 C
527 26-06-2020 19:50:00 24.1 C 64 % 16.86 C
528 26-06-2020 19:55:00 23.9 C 65 % 16.92 C
529 26-06-2020 20:00:00 23.8 C 66 % 17.07 C
530 26-06-2020 20:05:00 23.7 C 66 % 16.97 C
531 26-06-2020 20:10:00 23.6 C 67 % 17.11 C
532 26-06-2020 20:15:00 23.5 C 67 % 17.02 C
533 26-06-2020 20:20:00 23.4 C 68 % 17.16 C
534 26-06-2020 20:25:00 23.3 C 68 % 17.06 C
535 26-06-2020 20:30:00 23.2 C 69 % 17.2 C
536 26-06-2020 20:35:00 23.2 C 72 % 17.87 C
537 26-06-2020 20:40:00 23.1 C 74 % 18.21 C
538 26-06-2020 20:45:00 22.8 C 74 % 17.92 C
539 26-06-2020 20:50:00 22.6 C 74 % 17.73 C
540 26-06-2020 20:55:00 22.3 C 75 % 17.65 C
541 26-06-2020 21:00:00 22.1 C 76 % 17.67 C
542 26-06-2020 21:05:00 22 C 77 % 17.78 C
543 26-06-2020 21:10:00 21.8 C 77 % 17.59 C
544 26-06-2020 21:15:00 21.7 C 77 % 17.49 C
545 26-06-2020 21:20:00 21.6 C 78 % 17.6 C
546 26-06-2020 21:25:00 21.6 C 78 % 17.6 C
547 26-06-2020 21:30:00 21.4 C 78 % 17.4 C
548 26-06-2020 21:35:00 21.3 C 79 % 17.51 C
549 26-06-2020 21:40:00 21.3 C 79 % 17.51 C
550 26-06-2020 21:45:00 21.3 C 79 % 17.51 C
Sensor: Nr:Datum:Temp:Feuchte:Taupunkt:
Aussen-T/F 551 26-06-2020 21:50:00 21.3 C 80 % 17.71 C
552 26-06-2020 21:55:00 21.3 C 80 % 17.71 C
553 26-06-2020 22:00:00 21.3 C 80 % 17.71 C
554 26-06-2020 22:05:00 21.2 C 80 % 17.61 C
555 26-06-2020 22:10:00 21.1 C 80 % 17.51 C
556 26-06-2020 22:15:00 21.1 C 80 % 17.51 C
557 26-06-2020 22:20:00 21.1 C 80 % 17.51 C
558 26-06-2020 22:25:00 21.1 C 81 % 17.71 C
559 26-06-2020 22:30:00 21 C 81 % 17.61 C
560 26-06-2020 22:35:00 21 C 81 % 17.61 C
561 26-06-2020 22:40:00 20.9 C 81 % 17.52 C
562 26-06-2020 22:45:00 20.8 C 82 % 17.61 C
563 26-06-2020 22:50:00 20.8 C 82 % 17.61 C
564 26-06-2020 22:55:00 20.7 C 82 % 17.52 C
565 26-06-2020 23:00:00 20.5 C 83 % 17.51 C
566 26-06-2020 23:05:00 20.4 C 83 % 17.42 C
567 26-06-2020 23:10:00 20.3 C 83 % 17.32 C
568 26-06-2020 23:15:00 20.2 C 84 % 17.41 C
569 26-06-2020 23:20:00 20.2 C 84 % 17.41 C
570 26-06-2020 23:25:00 20.1 C 84 % 17.31 C
571 26-06-2020 23:30:00 20.1 C 84 % 17.31 C
572 26-06-2020 23:35:00 20.1 C 83 % 17.12 C
573 26-06-2020 23:40:00 20.1 C 83 % 17.12 C
574 26-06-2020 23:45:00 20.2 C 83 % 17.22 C
575 26-06-2020 23:50:00 20.2 C 82 % 17.03 C
Sensor: Nr:Datum:Temp:Feuchte:Taupunkt:
Aussen-T/F 576 26-06-2020 23:55:00 20.2 C 82 % 17.03 C
577 27-06-2020 00:00:00 20.3 C 81 % 16.93 C
578 27-06-2020 00:05:00 20.4 C 81 % 17.03 C
579 27-06-2020 00:10:00 20.4 C 81 % 17.03 C
580 27-06-2020 00:15:00 20.4 C 81 % 17.03 C
581 27-06-2020 00:20:00 20.4 C 80 % 16.83 C
582 27-06-2020 00:25:00 20.5 C 80 % 16.93 C
583 27-06-2020 00:30:00 20.5 C 80 % 16.93 C
584 27-06-2020 00:35:00 20.4 C 80 % 16.83 C
585 27-06-2020 00:40:00 20.4 C 81 % 17.03 C
586 27-06-2020 00:45:00 20.3 C 82 % 17.13 C
587 27-06-2020 00:50:00 20.2 C 82 % 17.03 C
588 27-06-2020 00:55:00 20.1 C 82 % 16.93 C
589 27-06-2020 01:00:00 20 C 82 % 16.83 C
590 27-06-2020 01:05:00 19.9 C 82 % 16.74 C
591 27-06-2020 01:10:00 19.8 C 82 % 16.64 C
592 27-06-2020 01:15:00 19.8 C 83 % 16.83 C
593 27-06-2020 01:20:00 19.7 C 83 % 16.73 C
594 27-06-2020 01:25:00 19.5 C 83 % 16.54 C
595 27-06-2020 01:30:00 19.3 C 83 % 16.34 C
596 27-06-2020 01:35:00 19.2 C 84 % 16.43 C
597 27-06-2020 01:40:00 19 C 84 % 16.24 C
598 27-06-2020 01:45:00 18.9 C 85 % 16.32 C
599 27-06-2020 01:50:00 18.8 C 85 % 16.23 C
600 27-06-2020 01:55:00 18.8 C 86 % 16.41 C
Sensor: Nr:Datum:Temp:Feuchte:Taupunkt:
Aussen-T/F 601 27-06-2020 02:00:00 18.7 C 86 % 16.31 C
602 27-06-2020 02:05:00 18.6 C 86 % 16.21 C
603 27-06-2020 02:10:00 18.5 C 86 % 16.11 C
604 27-06-2020 02:15:00 18.4 C 86 % 16.02 C
605 27-06-2020 02:20:00 18.3 C 87 % 16.1 C
606 27-06-2020 02:25:00 18.2 C 87 % 16 C
607 27-06-2020 02:30:00 18.2 C 88 % 16.18 C
608 27-06-2020 02:35:00 18.2 C 88 % 16.18 C
609 27-06-2020 02:40:00 18.1 C 88 % 16.08 C
610 27-06-2020 02:45:00 18.1 C 88 % 16.08 C
611 27-06-2020 02:50:00 18.1 C 88 % 16.08 C
612 27-06-2020 02:55:00 18.1 C 89 % 16.26 C
613 27-06-2020 03:00:00 18.1 C 89 % 16.26 C
614 27-06-2020 03:05:00 18.2 C 89 % 16.36 C
615 27-06-2020 03:10:00 18.2 C 89 % 16.36 C
616 27-06-2020 03:15:00 18.2 C 90 % 16.53 C
617 27-06-2020 03:20:00 18.3 C 90 % 16.63 C
618 27-06-2020 03:25:00 18.3 C 89 % 16.46 C
619 27-06-2020 03:30:00 18.3 C 89 % 16.46 C
620 27-06-2020 03:35:00 18.3 C 89 % 16.46 C
621 27-06-2020 03:40:00 18.4 C 89 % 16.55 C
622 27-06-2020 03:45:00 18.4 C 89 % 16.55 C
623 27-06-2020 03:50:00 18.4 C 90 % 16.73 C
624 27-06-2020 03:55:00 18.4 C 90 % 16.73 C
625 27-06-2020 04:00:00 18.4 C 89 % 16.55 C
Sensor: Nr:Datum:Temp:Feuchte:Taupunkt:
Aussen-T/F 626 27-06-2020 04:05:00 18.4 C 89 % 16.55 C
627 27-06-2020 04:10:00 18.3 C 89 % 16.46 C
628 27-06-2020 04:15:00 18.3 C 89 % 16.46 C
629 27-06-2020 04:20:00 18.3 C 89 % 16.46 C
630 27-06-2020 04:25:00 18.2 C 89 % 16.36 C
631 27-06-2020 04:30:00 18.1 C 89 % 16.26 C
632 27-06-2020 04:35:00 18.1 C 89 % 16.26 C
633 27-06-2020 04:40:00 18 C 90 % 16.34 C
634 27-06-2020 04:45:00 17.9 C 90 % 16.24 C
635 27-06-2020 04:50:00 17.8 C 90 % 16.14 C
636 27-06-2020 04:55:00 17.8 C 90 % 16.14 C
637 27-06-2020 05:00:00 17.7 C 90 % 16.04 C
638 27-06-2020 05:05:00 17.6 C 90 % 15.94 C
639 27-06-2020 05:10:00 17.5 C 91 % 16.01 C
640 27-06-2020 05:15:00 17.4 C 91 % 15.92 C
641 27-06-2020 05:20:00 17.4 C 91 % 15.92 C
642 27-06-2020 05:25:00 17.3 C 91 % 15.82 C
643 27-06-2020 05:30:00 17.3 C 92 % 15.99 C
644 27-06-2020 05:35:00 17.4 C 92 % 16.09 C
645 27-06-2020 05:40:00 17.4 C 92 % 16.09 C
646 27-06-2020 05:45:00 17.4 C 92 % 16.09 C
647 27-06-2020 05:50:00 17.6 C 93 % 16.45 C
648 27-06-2020 05:55:00 17.6 C 93 % 16.45 C
649 27-06-2020 06:00:00 17.7 C 93 % 16.55 C
650 27-06-2020 06:05:00 17.7 C 93 % 16.55 C
Sensor: Nr:Datum:Temp:Feuchte:Taupunkt:
Aussen-T/F 651 27-06-2020 06:10:00 17.8 C 93 % 16.65 C
652 27-06-2020 06:15:00 17.9 C 93 % 16.75 C
653 27-06-2020 06:20:00 18.1 C 92 % 16.78 C
654 27-06-2020 06:25:00 18.2 C 92 % 16.88 C
655 27-06-2020 06:30:00 18.3 C 92 % 16.98 C
656 27-06-2020 06:35:00 18.4 C 91 % 16.9 C
657 27-06-2020 06:40:00 18.6 C 91 % 17.1 C
658 27-06-2020 06:45:00 18.7 C 91 % 17.2 C
659 27-06-2020 06:50:00 18.7 C 91 % 17.2 C
660 27-06-2020 06:55:00 18.8 C 90 % 17.12 C
661 27-06-2020 07:00:00 18.9 C 90 % 17.22 C
662 27-06-2020 07:05:00 19 C 90 % 17.32 C
663 27-06-2020 07:10:00 19.1 C 90 % 17.42 C
664 27-06-2020 07:15:00 19.2 C 89 % 17.34 C
665 27-06-2020 07:20:00 19.3 C 90 % 17.62 C
666 27-06-2020 07:25:00 19.6 C 89 % 17.74 C
667 27-06-2020 07:30:00 19.8 C 88 % 17.75 C
668 27-06-2020 07:35:00 20 C 87 % 17.77 C
669 27-06-2020 07:40:00 20.2 C 86 % 17.78 C
670 27-06-2020 07:45:00 20.3 C 86 % 17.88 C
671 27-06-2020 07:50:00 20.4 C 84 % 17.61 C
672 27-06-2020 07:55:00 20.4 C 84 % 17.61 C
673 27-06-2020 08:00:00 20.5 C 83 % 17.51 C
674 27-06-2020 08:05:00 20.5 C 83 % 17.51 C
675 27-06-2020 08:10:00 20.6 C 83 % 17.61 C
Sensor: Nr:Datum:Temp:Feuchte:Taupunkt:
Aussen-T/F 676 27-06-2020 08:15:00 20.6 C 82 % 17.42 C
677 27-06-2020 08:20:00 20.7 C 83 % 17.71 C
678 27-06-2020 08:25:00 20.8 C 82 % 17.61 C
679 27-06-2020 08:30:00 21.1 C 81 % 17.71 C
680 27-06-2020 08:35:00 21.3 C 80 % 17.71 C
681 27-06-2020 08:40:00 21.4 C 80 % 17.81 C
682 27-06-2020 08:45:00 21.5 C 79 % 17.7 C
683 27-06-2020 08:50:00 21.5 C 78 % 17.5 C
684 27-06-2020 08:55:00 21.5 C 78 % 17.5 C
685 27-06-2020 09:00:00 21.4 C 78 % 17.4 C
686 27-06-2020 09:05:00 21.4 C 79 % 17.61 C
687 27-06-2020 09:10:00 21.4 C 78 % 17.4 C
688 27-06-2020 09:15:00 21.4 C 79 % 17.61 C
689 27-06-2020 09:20:00 21.5 C 80 % 17.9 C
690 27-06-2020 09:25:00 21.6 C 79 % 17.8 C
691 27-06-2020 09:30:00 21.7 C 78 % 17.7 C
692 27-06-2020 09:35:00 21.8 C 77 % 17.59 C
693 27-06-2020 09:40:00 21.9 C 76 % 17.48 C
694 27-06-2020 09:45:00 22 C 76 % 17.57 C
695 27-06-2020 09:50:00 22.1 C 75 % 17.46 C
696 27-06-2020 09:55:00 22.2 C 75 % 17.56 C
697 27-06-2020 10:00:00 22.4 C 75 % 17.75 C
698 27-06-2020 10:05:00 22.6 C 74 % 17.73 C
699 27-06-2020 10:10:00 22.7 C 74 % 17.83 C
700 27-06-2020 10:15:00 22.8 C 75 % 18.14 C
Sensor: Nr:Datum:Temp:Feuchte:Taupunkt:
Aussen-T/F 701 27-06-2020 10:20:00 22.9 C 71 % 17.36 C
702 27-06-2020 10:25:00 22.9 C 72 % 17.58 C
703 27-06-2020 10:30:00 23 C 71 % 17.46 C
704 27-06-2020 10:35:00 23.1 C 71 % 17.55 C
705 27-06-2020 10:40:00 23.2 C 70 % 17.42 C
706 27-06-2020 10:45:00 23.3 C 70 % 17.52 C
707 27-06-2020 10:50:00 23.5 C 70 % 17.71 C
708 27-06-2020 10:55:00 23.6 C 68 % 17.35 C
709 27-06-2020 11:00:00 23.6 C 69 % 17.58 C
710 27-06-2020 11:05:00 23.6 C 69 % 17.58 C
711 27-06-2020 11:10:00 23.5 C 69 % 17.48 C
712 27-06-2020 11:15:00 23.4 C 70 % 17.62 C
713 27-06-2020 11:20:00 23.3 C 70 % 17.52 C
714 27-06-2020 11:25:00 23.1 C 71 % 17.55 C
715 27-06-2020 11:30:00 22.9 C 71 % 17.36 C
716 27-06-2020 11:35:00 22.9 C 71 % 17.36 C
717 27-06-2020 11:40:00 22.8 C 72 % 17.49 C
718 27-06-2020 11:45:00 22.7 C 72 % 17.39 C
719 27-06-2020 11:50:00 22.7 C 72 % 17.39 C
720 27-06-2020 11:55:00 22.6 C 73 % 17.51 C
721 27-06-2020 12:00:00 22.5 C 73 % 17.42 C
722 27-06-2020 12:05:00 22.4 C 74 % 17.54 C
723 27-06-2020 12:10:00 22.3 C 74 % 17.44 C
724 27-06-2020 12:15:00 22.2 C 75 % 17.56 C
725 27-06-2020 12:20:00 22.2 C 75 % 17.56 C
Sensor: Nr:Datum:Temp:Feuchte:Taupunkt:
Aussen-T/F 726 27-06-2020 12:25:00 22.3 C 76 % 17.86 C
727 27-06-2020 12:30:00 22.5 C 75 % 17.85 C
728 27-06-2020 12:35:00 22.7 C 76 % 18.25 C
729 27-06-2020 12:40:00 22.8 C 75 % 18.14 C
730 27-06-2020 12:45:00 22.9 C 75 % 18.23 C
731 27-06-2020 12:50:00 22.9 C 75 % 18.23 C
732 27-06-2020 12:55:00 23 C 75 % 18.33 C
733 27-06-2020 13:00:00 23 C 75 % 18.33 C
734 27-06-2020 13:05:00 23 C 76 % 18.54 C
735 27-06-2020 13:10:00 22.9 C 75 % 18.23 C
736 27-06-2020 13:15:00 22.9 C 75 % 18.23 C
737 27-06-2020 13:20:00 22.9 C 76 % 18.44 C
738 27-06-2020 13:25:00 22.9 C 75 % 18.23 C
739 27-06-2020 13:30:00 22.9 C 76 % 18.44 C
740 27-06-2020 13:35:00 23 C 75 % 18.33 C
741 27-06-2020 13:40:00 23.1 C 76 % 18.64 C
742 27-06-2020 13:45:00 23.2 C 76 % 18.73 C
743 27-06-2020 13:50:00 23.4 C 75 % 18.71 C
744 27-06-2020 13:55:00 23.7 C 74 % 18.79 C
745 27-06-2020 14:00:00 23.9 C 73 % 18.76 C
746 27-06-2020 14:05:00 24.2 C 71 % 18.61 C
747 27-06-2020 14:10:00 24.6 C 69 % 18.53 C
748 27-06-2020 14:15:00 24.7 C 69 % 18.63 C
749 27-06-2020 14:20:00 24.9 C 68 % 18.59 C
750 27-06-2020 14:25:00 25 C 66 % 18.2 C
Sensor: Nr:Datum:Temp:Feuchte:Taupunkt:
Aussen-T/F 751 27-06-2020 14:30:00 25.4 C 63 % 17.84 C
752 27-06-2020 14:35:00 25.8 C 62 % 17.97 C
753 27-06-2020 14:40:00 26.2 C 60 % 17.82 C
754 27-06-2020 14:45:00 26.4 C 59 % 17.74 C
755 27-06-2020 14:50:00 26.7 C 58 % 17.75 C
756 27-06-2020 14:55:00 26.8 C 57 % 17.57 C
757 27-06-2020 15:00:00 27.1 C 57 % 17.85 C
758 27-06-2020 15:05:00 27.3 C 56 % 17.75 C
759 27-06-2020 15:10:00 27.5 C 54 % 17.36 C
760 27-06-2020 15:15:00 27.7 C 54 % 17.55 C
761 27-06-2020 15:20:00 27.7 C 53 % 17.25 C
762 27-06-2020 15:25:00 27.6 C 53 % 17.16 C
763 27-06-2020 15:30:00 27.7 C 55 % 17.84 C
764 27-06-2020 15:35:00 28.2 C 52 % 17.41 C
765 27-06-2020 15:40:00 28.3 C 52 % 17.5 C
766 27-06-2020 15:45:00 28.4 C 51 % 17.29 C
767 27-06-2020 15:50:00 28.2 C 51 % 17.1 C
768 27-06-2020 15:55:00 28.3 C 51 % 17.19 C
769 27-06-2020 16:00:00 28.5 C 51 % 17.38 C
770 27-06-2020 16:05:00 28.6 C 52 % 17.78 C
771 27-06-2020 16:10:00 28.6 C 52 % 17.78 C
772 27-06-2020 16:15:00 28.5 C 52 % 17.69 C
773 27-06-2020 16:20:00 28.7 C 52 % 17.87 C
774 27-06-2020 16:25:00 28.9 C 51 % 17.74 C
775 27-06-2020 16:30:00 29.1 C 51 % 17.93 C
Sensor: Nr:Datum:Temp:Feuchte:Taupunkt:
Aussen-T/F 776 27-06-2020 16:35:00 29.1 C 51 % 17.93 C
777 27-06-2020 16:40:00 29.1 C 51 % 17.93 C
778 27-06-2020 16:45:00 28.9 C 51 % 17.74 C
779 27-06-2020 16:50:00 29.1 C 51 % 17.93 C
780 27-06-2020 16:55:00 29.4 C 50 % 17.89 C
781 27-06-2020 17:00:00 29.6 C 52 % 18.7 C
782 27-06-2020 17:05:00 29.8 C 48 % 17.61 C
783 27-06-2020 17:10:00 29.8 C 49 % 17.93 C
784 27-06-2020 17:15:00 29.3 C 49 % 17.48 C
785 27-06-2020 17:20:00 28.5 C 51 % 17.38 C
786 27-06-2020 17:25:00 28.6 C 51 % 17.47 C
787 27-06-2020 17:30:00 28.7 C 51 % 17.56 C
788 27-06-2020 17:35:00 28.9 C 51 % 17.74 C
789 27-06-2020 17:40:00 29.1 C 50 % 17.61 C
790 27-06-2020 17:45:00 28.5 C 51 % 17.38 C
791 27-06-2020 17:50:00 28.1 C 52 % 17.32 C
792 27-06-2020 17:55:00 27.8 C 51 % 16.73 C
793 27-06-2020 18:00:00 27.6 C 52 % 16.86 C
794 27-06-2020 18:05:00 27.2 C 53 % 16.79 C
795 27-06-2020 18:10:00 27.1 C 54 % 16.99 C
796 27-06-2020 18:15:00 27.3 C 55 % 17.47 C
797 27-06-2020 18:20:00 28 C 52 % 17.22 C
798 27-06-2020 18:25:00 28.5 C 49 % 16.75 C
799 27-06-2020 18:30:00 28.3 C 51 % 17.19 C
800 27-06-2020 18:35:00 28.3 C 52 % 17.5 C
Sensor: Nr:Datum:Temp:Feuchte:Taupunkt:
Aussen-T/F 801 27-06-2020 18:40:00 28.3 C 51 % 17.19 C
802 27-06-2020 18:45:00 28.6 C 51 % 17.47 C
803 27-06-2020 18:50:00 28.7 C 50 % 17.25 C
804 27-06-2020 18:55:00 28.6 C 50 % 17.16 C
805 27-06-2020 19:00:00 28.1 C 52 % 17.32 C
806 27-06-2020 19:05:00 27.7 C 52 % 16.95 C
807 27-06-2020 19:10:00 27.3 C 53 % 16.88 C
808 27-06-2020 19:15:00 27 C 53 % 16.6 C
809 27-06-2020 19:20:00 26.8 C 54 % 16.71 C
810 27-06-2020 19:25:00 26.6 C 54 % 16.53 C
811 27-06-2020 19:30:00 26.4 C 55 % 16.63 C
812 27-06-2020 19:35:00 26.3 C 55 % 16.54 C
813 27-06-2020 19:40:00 26.2 C 55 % 16.45 C
814 27-06-2020 19:45:00 26.1 C 55 % 16.35 C
815 27-06-2020 19:50:00 26.1 C 56 % 16.64 C
816 27-06-2020 19:55:00 25.9 C 55 % 16.17 C
817 27-06-2020 20:00:00 25.9 C 56 % 16.45 C
818 27-06-2020 20:05:00 25.9 C 56 % 16.45 C
819 27-06-2020 20:10:00 25.8 C 58 % 16.91 C
820 27-06-2020 20:15:00 25.7 C 58 % 16.82 C
821 27-06-2020 20:20:00 25.6 C 56 % 16.17 C
822 27-06-2020 20:25:00 25.6 C 57 % 16.45 C
823 27-06-2020 20:30:00 25.5 C 58 % 16.63 C
824 27-06-2020 20:35:00 25.4 C 59 % 16.81 C
825 27-06-2020 20:40:00 25.3 C 57 % 16.17 C
Sensor: Nr:Datum:Temp:Feuchte:Taupunkt:
Aussen-T/F 826 27-06-2020 20:45:00 25.3 C 57 % 16.17 C
827 27-06-2020 20:50:00 25.2 C 57 % 16.08 C
828 27-06-2020 20:55:00 25.1 C 57 % 15.98 C
829 27-06-2020 21:00:00 25.1 C 58 % 16.26 C
830 27-06-2020 21:05:00 24.9 C 58 % 16.07 C
831 27-06-2020 21:10:00 24.9 C 59 % 16.34 C
832 27-06-2020 21:15:00 24.7 C 59 % 16.15 C
833 27-06-2020 21:20:00 24.7 C 61 % 16.67 C
834 27-06-2020 21:25:00 24.4 C 62 % 16.65 C
835 27-06-2020 21:30:00 24.3 C 62 % 16.55 C
836 27-06-2020 21:35:00 24.2 C 63 % 16.71 C
837 27-06-2020 21:40:00 24.1 C 63 % 16.62 C
838 27-06-2020 21:45:00 23.9 C 64 % 16.68 C
839 27-06-2020 21:50:00 23.7 C 64 % 16.49 C
840 27-06-2020 21:55:00 23.6 C 65 % 16.64 C
841 27-06-2020 22:00:00 23.4 C 66 % 16.69 C
842 27-06-2020 22:05:00 23.3 C 66 % 16.59 C
843 27-06-2020 22:10:00 23.2 C 67 % 16.73 C
844 27-06-2020 22:15:00 23.1 C 67 % 16.64 C
845 27-06-2020 22:20:00 22.9 C 68 % 16.68 C
846 27-06-2020 22:25:00 22.8 C 68 % 16.59 C
847 27-06-2020 22:30:00 22.7 C 68 % 16.49 C
848 27-06-2020 22:35:00 22.7 C 69 % 16.72 C
849 27-06-2020 22:40:00 22.6 C 69 % 16.62 C
850 27-06-2020 22:45:00 22.6 C 70 % 16.85 C
Sensor: Nr:Datum:Temp:Feuchte:Taupunkt:
Aussen-T/F 851 27-06-2020 22:50:00 22.5 C 71 % 16.98 C
852 27-06-2020 22:55:00 22.4 C 71 % 16.88 C
853 27-06-2020 23:00:00 22.2 C 71 % 16.69 C
854 27-06-2020 23:05:00 22.1 C 72 % 16.82 C
855 27-06-2020 23:10:00 21.9 C 73 % 16.84 C
856 27-06-2020 23:15:00 21.8 C 73 % 16.75 C
857 27-06-2020 23:20:00 21.8 C 74 % 16.96 C
858 27-06-2020 23:25:00 21.7 C 74 % 16.86 C
859 27-06-2020 23:30:00 21.6 C 75 % 16.98 C
860 27-06-2020 23:35:00 21.6 C 75 % 16.98 C
861 27-06-2020 23:40:00 21.5 C 75 % 16.88 C
862 27-06-2020 23:45:00 21.5 C 74 % 16.67 C
863 27-06-2020 23:50:00 21.6 C 75 % 16.98 C
864 27-06-2020 23:55:00 21.6 C 75 % 16.98 C
865 28-06-2020 00:00:00 21.6 C 75 % 16.98 C
866 28-06-2020 00:05:00 21.6 C 75 % 16.98 C
867 28-06-2020 00:10:00 21.4 C 75 % 16.79 C
868 28-06-2020 00:15:00 21.4 C 75 % 16.79 C
869 28-06-2020 00:20:00 21.3 C 76 % 16.9 C
870 28-06-2020 00:25:00 21.2 C 76 % 16.8 C
871 28-06-2020 00:30:00 20.9 C 76 % 16.51 C
872 28-06-2020 00:35:00 20.8 C 77 % 16.62 C
873 28-06-2020 00:40:00 20.6 C 78 % 16.63 C
874 28-06-2020 00:45:00 20.4 C 78 % 16.44 C
875 28-06-2020 00:50:00 20.3 C 79 % 16.54 C
Sensor: Nr:Datum:Temp:Feuchte:Taupunkt:
Aussen-T/F 876 28-06-2020 00:55:00 20.2 C 79 % 16.44 C
877 28-06-2020 01:00:00 20.2 C 79 % 16.44 C
878 28-06-2020 01:05:00 20.2 C 80 % 16.64 C
879 28-06-2020 01:10:00 20.2 C 80 % 16.64 C
880 28-06-2020 01:15:00 20.1 C 80 % 16.54 C
881 28-06-2020 01:20:00 20.1 C 80 % 16.54 C
882 28-06-2020 01:25:00 20.1 C 81 % 16.74 C
883 28-06-2020 01:30:00 20 C 81 % 16.64 C
884 28-06-2020 01:35:00 20 C 81 % 16.64 C
885 28-06-2020 01:40:00 19.9 C 81 % 16.54 C
886 28-06-2020 01:45:00 19.9 C 81 % 16.54 C
887 28-06-2020 01:50:00 19.9 C 81 % 16.54 C
888 28-06-2020 01:55:00 19.9 C 81 % 16.54 C
889 28-06-2020 02:00:00 19.9 C 81 % 16.54 C
890 28-06-2020 02:05:00 20 C 81 % 16.64 C
891 28-06-2020 02:10:00 20.1 C 81 % 16.74 C
892 28-06-2020 02:15:00 20.2 C 80 % 16.64 C
893 28-06-2020 02:20:00 20.3 C 80 % 16.74 C
894 28-06-2020 02:25:00 20.4 C 80 % 16.83 C
895 28-06-2020 02:30:00 20.4 C 79 % 16.64 C
896 28-06-2020 02:35:00 20.5 C 79 % 16.73 C
897 28-06-2020 02:40:00 20.6 C 79 % 16.83 C
898 28-06-2020 02:45:00 20.6 C 79 % 16.83 C
899 28-06-2020 02:50:00 20.7 C 82 % 17.52 C
900 28-06-2020 02:55:00 20.7 C 84 % 17.9 C
Sensor: Nr:Datum:Temp:Feuchte:Taupunkt:
Aussen-T/F 901 28-06-2020 03:00:00 20.6 C 83 % 17.61 C
902 28-06-2020 03:05:00 20.4 C 84 % 17.61 C
903 28-06-2020 03:10:00 20.3 C 84 % 17.51 C
904 28-06-2020 03:15:00 20.3 C 85 % 17.7 C
905 28-06-2020 03:20:00 20.2 C 85 % 17.6 C
906 28-06-2020 03:25:00 20.2 C 86 % 17.78 C
907 28-06-2020 03:30:00 20.1 C 86 % 17.68 C
908 28-06-2020 03:35:00 19.9 C 87 % 17.67 C
909 28-06-2020 03:40:00 19.8 C 87 % 17.57 C
910 28-06-2020 03:45:00 19.7 C 87 % 17.47 C
911 28-06-2020 03:50:00 19.7 C 88 % 17.66 C
912 28-06-2020 03:55:00 19.7 C 88 % 17.66 C
913 28-06-2020 04:00:00 19.6 C 88 % 17.56 C
914 28-06-2020 04:05:00 19.6 C 88 % 17.56 C
915 28-06-2020 04:10:00 19.5 C 89 % 17.64 C
916 28-06-2020 04:15:00 19.4 C 89 % 17.54 C
917 28-06-2020 04:20:00 19.4 C 89 % 17.54 C
918 28-06-2020 04:25:00 19.4 C 89 % 17.54 C
919 28-06-2020 04:30:00 19.3 C 89 % 17.44 C
920 28-06-2020 04:35:00 19.3 C 89 % 17.44 C
921 28-06-2020 04:40:00 19.3 C 89 % 17.44 C
922 28-06-2020 04:45:00 19.3 C 90 % 17.62 C
923 28-06-2020 04:50:00 19.2 C 90 % 17.52 C
924 28-06-2020 04:55:00 19.2 C 90 % 17.52 C
925 28-06-2020 05:00:00 19.2 C 90 % 17.52 C
Sensor: Nr:Datum:Temp:Feuchte:Taupunkt:
Aussen-T/F 926 28-06-2020 05:05:00 19.1 C 90 % 17.42 C
927 28-06-2020 05:10:00 19.1 C 90 % 17.42 C
928 28-06-2020 05:15:00 19.1 C 91 % 17.6 C
929 28-06-2020 05:20:00 19.1 C 91 % 17.6 C
930 28-06-2020 05:25:00 19.1 C 90 % 17.42 C
931 28-06-2020 05:30:00 19.1 C 90 % 17.42 C
932 28-06-2020 05:35:00 19.2 C 89 % 17.34 C
933 28-06-2020 05:40:00 19.1 C 89 % 17.24 C
934 28-06-2020 05:45:00 19.1 C 88 % 17.07 C
935 28-06-2020 05:50:00 19.1 C 88 % 17.07 C
936 28-06-2020 05:55:00 19.1 C 87 % 16.89 C
937 28-06-2020 06:00:00 19.1 C 87 % 16.89 C
938 28-06-2020 06:05:00 19.1 C 87 % 16.89 C
939 28-06-2020 06:10:00 19 C 86 % 16.6 C
940 28-06-2020 06:15:00 19 C 87 % 16.79 C
941 28-06-2020 06:20:00 19 C 86 % 16.6 C
942 28-06-2020 06:25:00 19.1 C 86 % 16.7 C
943 28-06-2020 06:30:00 19.1 C 87 % 16.89 C
944 28-06-2020 06:35:00 19.1 C 86 % 16.7 C
945 28-06-2020 06:40:00 19.2 C 86 % 16.8 C
946 28-06-2020 06:45:00 19.3 C 85 % 16.72 C
947 28-06-2020 06:50:00 19.3 C 85 % 16.72 C
948 28-06-2020 06:55:00 19.4 C 85 % 16.81 C
949 28-06-2020 07:00:00 19.5 C 84 % 16.72 C
950 28-06-2020 07:05:00 19.6 C 84 % 16.82 C
Sensor: Nr:Datum:Temp:Feuchte:Taupunkt:
Aussen-T/F 951 28-06-2020 07:10:00 19.7 C 83 % 16.73 C
952 28-06-2020 07:15:00 19.7 C 83 % 16.73 C
953 28-06-2020 07:20:00 19.8 C 82 % 16.64 C
954 28-06-2020 07:25:00 19.8 C 82 % 16.64 C
955 28-06-2020 07:30:00 19.9 C 79 % 16.15 C
956 28-06-2020 07:35:00 20.1 C 78 % 16.14 C
957 28-06-2020 07:40:00 20.2 C 78 % 16.24 C
958 28-06-2020 07:45:00 20.3 C 77 % 16.14 C
959 28-06-2020 07:50:00 20.3 C 77 % 16.14 C
960 28-06-2020 07:55:00 20.4 C 77 % 16.23 C
961 28-06-2020 08:00:00 20.5 C 76 % 16.12 C
962 28-06-2020 08:05:00 20.6 C 76 % 16.22 C
963 28-06-2020 08:10:00 20.6 C 77 % 16.43 C
964 28-06-2020 08:15:00 20.7 C 75 % 16.11 C
965 28-06-2020 08:20:00 20.7 C 75 % 16.11 C
966 28-06-2020 08:25:00 20.7 C 75 % 16.11 C
967 28-06-2020 08:30:00 20.6 C 75 % 16.01 C
968 28-06-2020 08:35:00 20.5 C 76 % 16.12 C
969 28-06-2020 08:40:00 20.6 C 76 % 16.22 C
970 28-06-2020 08:45:00 20.8 C 75 % 16.21 C
971 28-06-2020 08:50:00 20.8 C 74 % 16 C
972 28-06-2020 08:55:00 20.8 C 73 % 15.78 C
973 28-06-2020 09:00:00 20.7 C 73 % 15.69 C
974 28-06-2020 09:05:00 20.6 C 74 % 15.8 C
975 28-06-2020 09:10:00 20.5 C 71 % 15.06 C
Sensor: Nr:Datum:Temp:Feuchte:Taupunkt:
Aussen-T/F 976 28-06-2020 09:15:00 20.4 C 71 % 14.97 C
977 28-06-2020 09:20:00 20.3 C 69 % 14.43 C
978 28-06-2020 09:25:00 20.3 C 69 % 14.43 C
979 28-06-2020 09:30:00 20.3 C 68 % 14.2 C
980 28-06-2020 09:35:00 20.2 C 68 % 14.11 C
981 28-06-2020 09:40:00 20 C 67 % 13.69 C
982 28-06-2020 09:45:00 19.8 C 68 % 13.73 C
983 28-06-2020 09:50:00 19.8 C 67 % 13.5 C
984 28-06-2020 09:55:00 19.8 C 68 % 13.73 C
985 28-06-2020 10:00:00 19.8 C 67 % 13.5 C
986 28-06-2020 10:05:00 19.8 C 66 % 13.27 C
987 28-06-2020 10:10:00 19.8 C 67 % 13.5 C
988 28-06-2020 10:15:00 19.8 C 67 % 13.5 C
989 28-06-2020 10:20:00 19.9 C 68 % 13.82 C
990 28-06-2020 10:25:00 20.1 C 67 % 13.78 C
991 28-06-2020 10:30:00 20.1 C 67 % 13.78 C
992 28-06-2020 10:35:00 20.1 C 66 % 13.55 C
993 28-06-2020 10:40:00 19.9 C 68 % 13.82 C
994 28-06-2020 10:45:00 19.8 C 67 % 13.5 C
995 28-06-2020 10:50:00 19.8 C 68 % 13.73 C
996 28-06-2020 10:55:00 19.9 C 68 % 13.82 C
997 28-06-2020 11:00:00 20.1 C 68 % 14.01 C
998 28-06-2020 11:05:00 20.3 C 68 % 14.2 C
999 28-06-2020 11:10:00 20.3 C 67 % 13.97 C
1000 28-06-2020 11:15:00 20.4 C 67 % 14.07 C
Sensor: Nr:Datum:Temp:Feuchte:Taupunkt:
Aussen-T/F 1001 28-06-2020 11:20:00 20.4 C 68 % 14.3 C
1002 28-06-2020 11:25:00 20.5 C 69 % 14.62 C
1003 28-06-2020 11:30:00 20.6 C 66 % 14.03 C
1004 28-06-2020 11:35:00 20.6 C 66 % 14.03 C
1005 28-06-2020 11:40:00 20.6 C 67 % 14.26 C
1006 28-06-2020 11:45:00 20.4 C 65 % 13.6 C
1007 28-06-2020 11:50:00 20.4 C 65 % 13.6 C
1008 28-06-2020 11:55:00 20.5 C 64 % 13.46 C
1009 28-06-2020 12:00:00 20.7 C 63 % 13.41 C
1010 28-06-2020 12:05:00 20.8 C 63 % 13.5 C
1011 28-06-2020 12:10:00 20.8 C 63 % 13.5 C
1012 28-06-2020 12:15:00 20.8 C 62 % 13.26 C
1013 28-06-2020 12:20:00 20.7 C 61 % 12.91 C
1014 28-06-2020 12:25:00 20.5 C 62 % 12.97 C
1015 28-06-2020 12:30:00 20.4 C 62 % 12.88 C
1016 28-06-2020 12:35:00 20.4 C 63 % 13.12 C
1017 28-06-2020 12:40:00 20.4 C 64 % 13.37 C
1018 28-06-2020 12:45:00 20.4 C 63 % 13.12 C
1019 28-06-2020 12:50:00 20.4 C 63 % 13.12 C
1020 28-06-2020 12:55:00 20.5 C 63 % 13.22 C
1021 28-06-2020 13:00:00 20.8 C 62 % 13.26 C
1022 28-06-2020 13:05:00 21.3 C 59 % 12.97 C
1023 28-06-2020 13:10:00 21.7 C 57 % 12.81 C
1024 28-06-2020 13:15:00 21.8 C 56 % 12.64 C
1025 28-06-2020 13:20:00 21.9 C 58 % 13.27 C
Sensor: Nr:Datum:Temp:Feuchte:Taupunkt:
Aussen-T/F 1026 28-06-2020 13:25:00 22.1 C 56 % 12.92 C
1027 28-06-2020 13:30:00 22 C 57 % 13.09 C
1028 28-06-2020 13:35:00 22 C 55 % 12.55 C
1029 28-06-2020 13:40:00 22.1 C 57 % 13.19 C
1030 28-06-2020 13:45:00 22.1 C 56 % 12.92 C
1031 28-06-2020 13:50:00 22.1 C 56 % 12.92 C
1032 28-06-2020 13:55:00 22.1 C 56 % 12.92 C
1033 28-06-2020 14:00:00 22.1 C 59 % 13.72 C
1034 28-06-2020 14:05:00 21.6 C 61 % 13.76 C
1035 28-06-2020 14:10:00 21 C 62 % 13.44 C
1036 28-06-2020 14:15:00 20.7 C 64 % 13.65 C
1037 28-06-2020 14:20:00 20.4 C 64 % 13.37 C
1038 28-06-2020 14:25:00 20.1 C 65 % 13.32 C
1039 28-06-2020 14:30:00 19.8 C 67 % 13.5 C
1040 28-06-2020 14:35:00 19.6 C 68 % 13.54 C
1041 28-06-2020 14:40:00 19.4 C 68 % 13.34 C
1042 28-06-2020 14:45:00 19.4 C 69 % 13.57 C
1043 28-06-2020 14:50:00 19.4 C 69 % 13.57 C
1044 28-06-2020 14:55:00 19.4 C 69 % 13.57 C
1045 28-06-2020 15:00:00 19.4 C 69 % 13.57 C
1046 28-06-2020 15:05:00 19.3 C 70 % 13.69 C
1047 28-06-2020 15:10:00 19.3 C 70 % 13.69 C
1048 28-06-2020 15:15:00 19.2 C 70 % 13.6 C
1049 28-06-2020 15:20:00 19.2 C 70 % 13.6 C
1050 28-06-2020 15:25:00 19.3 C 70 % 13.69 C
Sensor: Nr:Datum:Temp:Feuchte:Taupunkt:
Aussen-T/F 1051 28-06-2020 15:30:00 19.4 C 68 % 13.34 C
1052 28-06-2020 15:35:00 19.4 C 68 % 13.34 C
1053 28-06-2020 15:40:00 19.6 C 69 % 13.76 C
1054 28-06-2020 15:45:00 19.7 C 68 % 13.63 C
1055 28-06-2020 15:50:00 19.8 C 66 % 13.27 C
1056 28-06-2020 15:55:00 19.9 C 67 % 13.59 C
1057 28-06-2020 16:00:00 20 C 67 % 13.69 C
1058 28-06-2020 16:05:00 20.2 C 66 % 13.65 C
1059 28-06-2020 16:10:00 20.3 C 66 % 13.74 C
1060 28-06-2020 16:15:00 20.5 C 64 % 13.46 C
1061 28-06-2020 16:20:00 20.6 C 63 % 13.31 C
1062 28-06-2020 16:25:00 20.6 C 61 % 12.82 C
1063 28-06-2020 16:30:00 20.6 C 61 % 12.82 C
1064 28-06-2020 16:35:00 20.5 C 61 % 12.73 C
1065 28-06-2020 16:40:00 20.5 C 62 % 12.97 C
1066 28-06-2020 16:45:00 20.6 C 62 % 13.07 C
1067 28-06-2020 16:50:00 20.6 C 62 % 13.07 C
1068 28-06-2020 16:55:00 20.5 C 63 % 13.22 C
1069 28-06-2020 17:00:00 20.6 C 63 % 13.31 C
1070 28-06-2020 17:05:00 20.7 C 64 % 13.65 C
1071 28-06-2020 17:10:00 20.8 C 62 % 13.26 C
1072 28-06-2020 17:15:00 20.8 C 63 % 13.5 C
1073 28-06-2020 17:20:00 20.8 C 62 % 13.26 C
1074 28-06-2020 17:25:00 20.8 C 62 % 13.26 C
1075 28-06-2020 17:30:00 20.7 C 61 % 12.91 C
Sensor: Nr:Datum:Temp:Feuchte:Taupunkt:
Aussen-T/F 1076 28-06-2020 17:35:00 20.6 C 62 % 13.07 C
1077 28-06-2020 17:40:00 20.6 C 62 % 13.07 C
1078 28-06-2020 17:45:00 20.7 C 63 % 13.41 C
1079 28-06-2020 17:50:00 20.7 C 61 % 12.91 C
1080 28-06-2020 17:55:00 20.8 C 62 % 13.26 C
1081 28-06-2020 18:00:00 20.8 C 61 % 13.01 C
1082 28-06-2020 18:05:00 20.7 C 61 % 12.91 C
1083 28-06-2020 18:10:00 20.7 C 62 % 13.16 C
1084 28-06-2020 18:15:00 20.7 C 62 % 13.16 C
1085 28-06-2020 18:20:00 20.7 C 61 % 12.91 C
1086 28-06-2020 18:25:00 20.8 C 61 % 13.01 C
1087 28-06-2020 18:30:00 20.8 C 61 % 13.01 C
1088 28-06-2020 18:35:00 20.9 C 61 % 13.1 C
1089 28-06-2020 18:40:00 21.1 C 62 % 13.54 C
1090 28-06-2020 18:45:00 21.1 C 60 % 13.04 C
1091 28-06-2020 18:50:00 21.2 C 61 % 13.38 C
1092 28-06-2020 18:55:00 21.2 C 61 % 13.38 C
1093 28-06-2020 19:00:00 21.1 C 60 % 13.04 C
1094 28-06-2020 19:05:00 20.9 C 61 % 13.1 C
1095 28-06-2020 19:10:00 20.7 C 61 % 12.91 C
1096 28-06-2020 19:15:00 20.6 C 62 % 13.07 C
1097 28-06-2020 19:20:00 20.5 C 63 % 13.22 C
1098 28-06-2020 19:25:00 20.4 C 62 % 12.88 C
1099 28-06-2020 19:30:00 20.3 C 64 % 13.27 C
1100 28-06-2020 19:35:00 20.3 C 63 % 13.03 C
Sensor: Nr:Datum:Temp:Feuchte:Taupunkt:
Aussen-T/F 1101 28-06-2020 19:40:00 20.2 C 63 % 12.94 C
1102 28-06-2020 19:45:00 20.2 C 64 % 13.18 C
1103 28-06-2020 19:50:00 20.2 C 65 % 13.41 C
1104 28-06-2020 19:55:00 20.1 C 64 % 13.08 C
1105 28-06-2020 20:00:00 20.1 C 64 % 13.08 C
1106 28-06-2020 20:05:00 20 C 64 % 12.99 C
1107 28-06-2020 20:10:00 19.9 C 64 % 12.89 C
1108 28-06-2020 20:15:00 19.9 C 66 % 13.36 C
1109 28-06-2020 20:20:00 19.9 C 64 % 12.89 C
1110 28-06-2020 20:25:00 20 C 64 % 12.99 C
1111 28-06-2020 20:30:00 20.3 C 64 % 13.27 C
1112 28-06-2020 20:35:00 20.4 C 65 % 13.6 C
1113 28-06-2020 20:40:00 20.4 C 63 % 13.12 C
1114 28-06-2020 20:45:00 20.4 C 63 % 13.12 C
1115 28-06-2020 20:50:00 20.4 C 63 % 13.12 C
1116 28-06-2020 20:55:00 20.4 C 64 % 13.37 C
1117 28-06-2020 21:00:00 20.3 C 64 % 13.27 C
1118 28-06-2020 21:05:00 20.2 C 64 % 13.18 C
1119 28-06-2020 21:10:00 20.1 C 64 % 13.08 C
1120 28-06-2020 21:15:00 19.8 C 65 % 13.03 C
1121 28-06-2020 21:20:00 19.7 C 66 % 13.17 C
1122 28-06-2020 21:25:00 19.6 C 67 % 13.31 C
1123 28-06-2020 21:30:00 19.4 C 68 % 13.34 C
1124 28-06-2020 21:35:00 19.2 C 68 % 13.15 C
1125 28-06-2020 21:40:00 19.1 C 69 % 13.28 C
Sensor: Nr:Datum:Temp:Feuchte:Taupunkt:
Aussen-T/F 1126 28-06-2020 21:45:00 18.8 C 69 % 13 C
1127 28-06-2020 21:50:00 18.6 C 70 % 13.02 C
1128 28-06-2020 21:55:00 18.4 C 71 % 13.05 C
1129 28-06-2020 22:00:00 18.2 C 72 % 13.07 C
1130 28-06-2020 22:05:00 17.9 C 72 % 12.78 C
1131 28-06-2020 22:10:00 17.7 C 73 % 12.8 C
1132 28-06-2020 22:15:00 17.4 C 73 % 12.51 C
1133 28-06-2020 22:20:00 17.3 C 74 % 12.62 C
1134 28-06-2020 22:25:00 17.1 C 75 % 12.64 C
1135 28-06-2020 22:30:00 16.8 C 76 % 12.55 C
1136 28-06-2020 22:35:00 16.7 C 76 % 12.45 C
1137 28-06-2020 22:40:00 16.4 C 77 % 12.36 C
1138 28-06-2020 22:45:00 16.2 C 78 % 12.36 C
1139 28-06-2020 22:50:00 16.1 C 79 % 12.46 C
1140 28-06-2020 22:55:00 15.9 C 80 % 12.46 C
1141 28-06-2020 23:00:00 15.8 C 80 % 12.36 C
1142 28-06-2020 23:05:00 15.7 C 80 % 12.26 C
1143 28-06-2020 23:10:00 15.7 C 81 % 12.45 C
1144 28-06-2020 23:15:00 15.6 C 81 % 12.35 C
1145 28-06-2020 23:20:00 15.5 C 81 % 12.26 C
1146 28-06-2020 23:25:00 15.4 C 82 % 12.35 C
1147 28-06-2020 23:30:00 15.3 C 82 % 12.25 C
1148 28-06-2020 23:35:00 15.3 C 82 % 12.25 C
1149 28-06-2020 23:40:00 15.3 C 83 % 12.43 C
1150 28-06-2020 23:45:00 15.2 C 83 % 12.33 C
Sensor: Nr:Datum:Temp:Feuchte:Taupunkt:
Aussen-T/F 1151 28-06-2020 23:50:00 15.2 C 83 % 12.33 C
1152 28-06-2020 23:55:00 15.1 C 83 % 12.24 C
1153 29-06-2020 00:00:00 15.1 C 84 % 12.42 C
1154 29-06-2020 00:05:00 15.1 C 84 % 12.42 C
1155 29-06-2020 00:10:00 15 C 84 % 12.32 C
1156 29-06-2020 00:15:00 15 C 84 % 12.32 C
1157 29-06-2020 00:20:00 15.1 C 84 % 12.42 C
1158 29-06-2020 00:25:00 15.1 C 84 % 12.42 C
1159 29-06-2020 00:30:00 15.1 C 84 % 12.42 C
1160 29-06-2020 00:35:00 15.1 C 84 % 12.42 C
1161 29-06-2020 00:40:00 15.1 C 84 % 12.42 C
1162 29-06-2020 00:45:00 15.1 C 84 % 12.42 C
1163 29-06-2020 00:50:00 15 C 84 % 12.32 C
1164 29-06-2020 00:55:00 15 C 85 % 12.5 C
1165 29-06-2020 01:00:00 15 C 85 % 12.5 C
1166 29-06-2020 01:05:00 15 C 85 % 12.5 C
1167 29-06-2020 01:10:00 15 C 85 % 12.5 C
1168 29-06-2020 01:15:00 14.9 C 85 % 12.4 C
1169 29-06-2020 01:20:00 14.9 C 85 % 12.4 C
1170 29-06-2020 01:25:00 14.8 C 85 % 12.3 C
1171 29-06-2020 01:30:00 14.8 C 85 % 12.3 C
1172 29-06-2020 01:35:00 14.7 C 85 % 12.21 C
1173 29-06-2020 01:40:00 14.5 C 86 % 12.19 C
1174 29-06-2020 01:45:00 14.4 C 86 % 12.09 C
1175 29-06-2020 01:50:00 14.2 C 86 % 11.89 C
Sensor: Nr:Datum:Temp:Feuchte:Taupunkt:
Aussen-T/F 1176 29-06-2020 01:55:00 14.2 C 87 % 12.07 C
1177 29-06-2020 02:00:00 14.1 C 87 % 11.97 C
1178 29-06-2020 02:05:00 13.9 C 88 % 11.95 C
1179 29-06-2020 02:10:00 13.9 C 88 % 11.95 C
1180 29-06-2020 02:15:00 13.9 C 88 % 11.95 C
1181 29-06-2020 02:20:00 13.8 C 89 % 12.02 C
1182 29-06-2020 02:25:00 13.8 C 89 % 12.02 C
1183 29-06-2020 02:30:00 13.8 C 89 % 12.02 C
1184 29-06-2020 02:35:00 13.8 C 89 % 12.02 C
1185 29-06-2020 02:40:00 13.8 C 90 % 12.19 C
1186 29-06-2020 02:45:00 13.8 C 90 % 12.19 C
1187 29-06-2020 02:50:00 13.8 C 90 % 12.19 C
1188 29-06-2020 02:55:00 13.8 C 90 % 12.19 C
1189 29-06-2020 03:00:00 13.8 C 90 % 12.19 C
1190 29-06-2020 03:05:00 13.8 C 90 % 12.19 C
1191 29-06-2020 03:10:00 13.9 C 90 % 12.29 C
1192 29-06-2020 03:15:00 13.9 C 90 % 12.29 C
1193 29-06-2020 03:20:00 13.9 C 91 % 12.46 C
1194 29-06-2020 03:25:00 14.1 C 91 % 12.65 C
1195 29-06-2020 03:30:00 14.1 C 91 % 12.65 C
1196 29-06-2020 03:35:00 14.1 C 90 % 12.49 C
1197 29-06-2020 03:40:00 14.1 C 90 % 12.49 C
1198 29-06-2020 03:45:00 14.1 C 90 % 12.49 C
1199 29-06-2020 03:50:00 13.9 C 90 % 12.29 C
1200 29-06-2020 03:55:00 13.9 C 90 % 12.29 C
Sensor: Nr:Datum:Temp:Feuchte:Taupunkt:
Aussen-T/F 1201 29-06-2020 04:00:00 13.8 C 90 % 12.19 C
1202 29-06-2020 04:05:00 13.8 C 91 % 12.36 C
1203 29-06-2020 04:10:00 13.9 C 91 % 12.46 C
1204 29-06-2020 04:15:00 14 C 91 % 12.56 C
1205 29-06-2020 04:20:00 14.1 C 91 % 12.65 C
1206 29-06-2020 04:25:00 14.1 C 92 % 12.82 C
1207 29-06-2020 04:30:00 14.2 C 91 % 12.75 C
1208 29-06-2020 04:35:00 14.2 C 91 % 12.75 C
1209 29-06-2020 04:40:00 14.2 C 91 % 12.75 C
1210 29-06-2020 04:45:00 14.3 C 91 % 12.85 C
1211 29-06-2020 04:50:00 14.3 C 91 % 12.85 C
1212 29-06-2020 04:55:00 14.3 C 91 % 12.85 C
1213 29-06-2020 05:00:00 14.4 C 91 % 12.95 C
1214 29-06-2020 05:05:00 14.5 C 91 % 13.05 C
1215 29-06-2020 05:10:00 14.6 C 91 % 13.15 C
1216 29-06-2020 05:15:00 14.7 C 90 % 13.08 C
1217 29-06-2020 05:20:00 14.8 C 89 % 13.01 C
1218 29-06-2020 05:25:00 14.9 C 89 % 13.1 C
1219 29-06-2020 05:30:00 15.1 C 88 % 13.13 C
1220 29-06-2020 05:35:00 15.1 C 88 % 13.13 C
1221 29-06-2020 05:40:00 15.2 C 88 % 13.23 C
1222 29-06-2020 05:45:00 15.2 C 88 % 13.23 C
1223 29-06-2020 05:50:00 15.2 C 87 % 13.05 C
1224 29-06-2020 05:55:00 15.2 C 87 % 13.05 C
1225 29-06-2020 06:00:00 15.2 C 87 % 13.05 C
Sensor: Nr:Datum:Temp:Feuchte:Taupunkt:
Aussen-T/F 1226 29-06-2020 06:05:00 15.3 C 87 % 13.15 C
1227 29-06-2020 06:10:00 15.3 C 87 % 13.15 C
1228 29-06-2020 06:15:00 15.2 C 87 % 13.05 C
1229 29-06-2020 06:20:00 15.3 C 87 % 13.15 C
1230 29-06-2020 06:25:00 15.3 C 87 % 13.15 C
1231 29-06-2020 06:30:00 15.4 C 87 % 13.25 C
1232 29-06-2020 06:35:00 15.4 C 87 % 13.25 C
1233 29-06-2020 06:40:00 15.5 C 87 % 13.35 C
1234 29-06-2020 06:45:00 15.6 C 86 % 13.27 C
1235 29-06-2020 06:50:00 15.7 C 86 % 13.37 C
1236 29-06-2020 06:55:00 15.8 C 86 % 13.46 C
1237 29-06-2020 07:00:00 15.8 C 86 % 13.46 C
1238 29-06-2020 07:05:00 15.9 C 86 % 13.56 C
1239 29-06-2020 07:10:00 16 C 86 % 13.66 C
1240 29-06-2020 07:15:00 16.1 C 85 % 13.58 C
1241 29-06-2020 07:20:00 16.2 C 85 % 13.68 C
1242 29-06-2020 07:25:00 16.3 C 84 % 13.59 C
1243 29-06-2020 07:30:00 16.4 C 84 % 13.69 C
1244 29-06-2020 07:35:00 16.5 C 84 % 13.79 C
1245 29-06-2020 07:40:00 16.6 C 84 % 13.89 C
1246 29-06-2020 07:45:00 16.8 C 83 % 13.9 C
1247 29-06-2020 07:50:00 16.9 C 83 % 14 C
1248 29-06-2020 07:55:00 17.1 C 82 % 14 C
1249 29-06-2020 08:00:00 17.2 C 82 % 14.1 C
1250 29-06-2020 08:05:00 17.2 C 81 % 13.91 C
Sensor: Nr:Datum:Temp:Feuchte:Taupunkt:
Aussen-T/F 1251 29-06-2020 08:10:00 17.2 C 81 % 13.91 C
1252 29-06-2020 08:15:00 17.2 C 81 % 13.91 C
1253 29-06-2020 08:20:00 17.2 C 81 % 13.91 C
1254 29-06-2020 08:25:00 17.1 C 82 % 14 C
1255 29-06-2020 08:30:00 17.1 C 82 % 14 C
1256 29-06-2020 08:35:00 17 C 82 % 13.91 C
1257 29-06-2020 08:40:00 16.5 C 70 % 11.01 C
1258 29-06-2020 08:45:00 15.9 C 71 % 10.65 C
1259 29-06-2020 08:50:00 14.8 C 77 % 10.81 C
1260 29-06-2020 08:55:00 13.8 C 82 % 10.78 C
1261 29-06-2020 09:00:00 13.3 C 85 % 10.83 C
1262 29-06-2020 09:05:00 13.1 C 88 % 11.16 C
1263 29-06-2020 09:10:00 12.8 C 89 % 11.03 C
1264 29-06-2020 09:15:00 12.6 C 89 % 10.84 C
1265 29-06-2020 09:20:00 12.4 C 91 % 10.97 C
1266 29-06-2020 09:25:00 12.4 C 92 % 11.14 C
1267 29-06-2020 09:30:00 12.4 C 92 % 11.14 C
1268 29-06-2020 09:35:00 12.3 C 92 % 11.04 C
1269 29-06-2020 09:40:00 12.3 C 92 % 11.04 C
1270 29-06-2020 09:45:00 12.2 C 93 % 11.1 C
1271 29-06-2020 09:50:00 12.2 C 93 % 11.1 C
1272 29-06-2020 09:55:00 12.2 C 93 % 11.1 C
1273 29-06-2020 10:00:00 12.2 C 93 % 11.1 C
1274 29-06-2020 10:05:00 12.3 C 94 % 11.36 C
1275 29-06-2020 10:10:00 12.4 C 94 % 11.46 C
Sensor: Nr:Datum:Temp:Feuchte:Taupunkt:
Aussen-T/F 1276 29-06-2020 10:15:00 12.6 C 94 % 11.66 C
1277 29-06-2020 10:20:00 12.9 C 95 % 12.12 C
1278 29-06-2020 10:25:00 13.2 C 95 % 12.42 C
1279 29-06-2020 10:30:00 13.4 C 94 % 12.45 C
1280 29-06-2020 10:35:00 13.7 C 95 % 12.91 C
1281 29-06-2020 10:40:00 13.8 C 93 % 12.69 C
1282 29-06-2020 10:45:00 14 C 93 % 12.89 C
1283 29-06-2020 10:50:00 14.2 C 92 % 12.92 C
1284 29-06-2020 10:55:00 14.4 C 91 % 12.95 C
1285 29-06-2020 11:00:00 14.6 C 90 % 12.98 C
1286 29-06-2020 11:05:00 14.8 C 90 % 13.18 C
1287 29-06-2020 11:10:00 15 C 89 % 13.2 C
1288 29-06-2020 11:15:00 15.2 C 88 % 13.23 C
1289 29-06-2020 11:20:00 15.5 C 87 % 13.35 C
1290 29-06-2020 11:25:00 15.7 C 86 % 13.37 C
1291 29-06-2020 11:30:00 15.8 C 86 % 13.46 C
1292 29-06-2020 11:35:00 16.1 C 86 % 13.76 C
1293 29-06-2020 11:40:00 16.3 C 85 % 13.77 C
1294 29-06-2020 11:45:00 16.6 C 84 % 13.89 C
1295 29-06-2020 11:50:00 16.7 C 83 % 13.8 C
1296 29-06-2020 11:55:00 16.9 C 83 % 14 C
1297 29-06-2020 12:00:00 17.2 C 83 % 14.29 C
1298 29-06-2020 12:05:00 17.3 C 81 % 14.01 C
1299 29-06-2020 12:10:00 17.2 C 79 % 13.53 C
1300 29-06-2020 12:15:00 17.2 C 80 % 13.72 C
Sensor: Nr:Datum:Temp:Feuchte:Taupunkt:
Aussen-T/F 1301 29-06-2020 12:20:00 17.2 C 81 % 13.91 C
1302 29-06-2020 12:25:00 17.4 C 80 % 13.92 C
1303 29-06-2020 12:30:00 17.7 C 77 % 13.62 C
1304 29-06-2020 12:35:00 17.8 C 78 % 13.91 C
1305 29-06-2020 12:40:00 17.9 C 78 % 14.01 C
1306 29-06-2020 12:45:00 18.1 C 77 % 14.01 C
1307 29-06-2020 12:50:00 18.3 C 76 % 14 C
1308 29-06-2020 12:55:00 18.6 C 76 % 14.29 C
1309 29-06-2020 13:00:00 18.9 C 75 % 14.37 C
1310 29-06-2020 13:05:00 19.2 C 72 % 14.03 C
1311 29-06-2020 13:10:00 19.4 C 72 % 14.22 C
1312 29-06-2020 13:15:00 19.7 C 71 % 14.3 C
1313 29-06-2020 13:20:00 19.9 C 68 % 13.82 C
1314 29-06-2020 13:25:00 20.1 C 69 % 14.24 C
1315 29-06-2020 13:30:00 20.2 C 68 % 14.11 C
1316 29-06-2020 13:35:00 20.3 C 69 % 14.43 C
1317 29-06-2020 13:40:00 20.4 C 68 % 14.3 C
1318 29-06-2020 13:45:00 20.5 C 69 % 14.62 C
1319 29-06-2020 13:50:00 20.7 C 67 % 14.36 C
1320 29-06-2020 13:55:00 20.8 C 67 % 14.45 C
1321 29-06-2020 14:00:00 20.9 C 66 % 14.31 C
1322 29-06-2020 14:05:00 21.1 C 66 % 14.5 C
1323 29-06-2020 14:10:00 21 C 63 % 13.69 C
1324 29-06-2020 14:15:00 20.9 C 63 % 13.6 C
1325 29-06-2020 14:20:00 21.1 C 60 % 13.04 C
Sensor: Nr:Datum:Temp:Feuchte:Taupunkt:
Aussen-T/F 1326 29-06-2020 14:25:00 21.2 C 61 % 13.38 C
1327 29-06-2020 14:30:00 21.4 C 58 % 12.8 C
1328 29-06-2020 14:35:00 21.7 C 62 % 14.1 C
1329 29-06-2020 14:40:00 21.8 C 62 % 14.2 C
1330 29-06-2020 14:45:00 21.8 C 60 % 13.69 C
1331 29-06-2020 14:50:00 22.1 C 60 % 13.98 C
1332 29-06-2020 14:55:00 22.3 C 57 % 13.37 C
1333 29-06-2020 15:00:00 22.2 C 55 % 12.73 C
1334 29-06-2020 15:05:00 22.2 C 52 % 11.88 C
1335 29-06-2020 15:10:00 22.4 C 52 % 12.07 C
1336 29-06-2020 15:15:00 22.8 C 47 % 10.91 C
1337 29-06-2020 15:20:00 22.8 C 48 % 11.22 C
1338 29-06-2020 15:25:00 22.6 C 48 % 11.04 C
1339 29-06-2020 15:30:00 22.3 C 48 % 10.77 C
1340 29-06-2020 15:35:00 22.7 C 49 % 11.44 C
1341 29-06-2020 15:40:00 23.1 C 47 % 11.18 C
1342 29-06-2020 15:45:00 23.4 C 45 % 10.8 C
1343 29-06-2020 15:50:00 23.4 C 44 % 10.46 C
1344 29-06-2020 15:55:00 23 C 45 % 10.43 C
1345 29-06-2020 16:00:00 23.3 C 45 % 10.71 C
1346 29-06-2020 16:05:00 23.7 C 47 % 11.73 C
1347 29-06-2020 16:10:00 23.9 C 44 % 10.91 C
1348 29-06-2020 16:15:00 23.7 C 44 % 10.73 C
1349 29-06-2020 16:20:00 23.6 C 45 % 10.98 C
1350 29-06-2020 16:25:00 23.2 C 48 % 11.59 C
Sensor: Nr:Datum:Temp:Feuchte:Taupunkt:
Aussen-T/F 1351 29-06-2020 16:30:00 23.6 C 46 % 11.31 C
1352 29-06-2020 16:35:00 24.1 C 43 % 10.75 C
1353 29-06-2020 16:40:00 24.2 C 43 % 10.84 C
1354 29-06-2020 16:45:00 24.2 C 43 % 10.84 C
1355 29-06-2020 16:50:00 24.4 C 44 % 11.36 C
1356 29-06-2020 16:55:00 24.2 C 43 % 10.84 C
1357 29-06-2020 17:00:00 23.8 C 48 % 12.14 C
1358 29-06-2020 17:05:00 24 C 47 % 12 C
1359 29-06-2020 17:10:00 23.8 C 47 % 11.82 C
1360 29-06-2020 17:15:00 23.7 C 45 % 11.07 C
1361 29-06-2020 17:20:00 23.9 C 45 % 11.25 C
1362 29-06-2020 17:25:00 24.2 C 45 % 11.52 C
1363 29-06-2020 17:30:00 24.3 C 44 % 11.27 C
1364 29-06-2020 17:35:00 24.5 C 43 % 11.11 C
1365 29-06-2020 17:40:00 24.3 C 43 % 10.93 C
1366 29-06-2020 17:45:00 23.8 C 44 % 10.82 C
1367 29-06-2020 17:50:00 23.8 C 43 % 10.48 C
1368 29-06-2020 17:55:00 24.2 C 43 % 10.84 C
1369 29-06-2020 18:00:00 23.7 C 42 % 10.03 C
1370 29-06-2020 18:05:00 23.3 C 46 % 11.04 C
1371 29-06-2020 18:10:00 23.7 C 44 % 10.73 C
1372 29-06-2020 18:15:00 23.6 C 43 % 10.3 C
1373 29-06-2020 18:20:00 23.2 C 44 % 10.28 C
1374 29-06-2020 18:25:00 23.2 C 45 % 10.62 C
1375 29-06-2020 18:30:00 22.9 C 46 % 10.67 C
Sensor: Nr:Datum:Temp:Feuchte:Taupunkt:
Aussen-T/F 1376 29-06-2020 18:35:00 23.1 C 44 % 10.19 C
1377 29-06-2020 18:40:00 23.4 C 45 % 10.8 C
1378 29-06-2020 18:45:00 23.8 C 41 % 9.76 C
1379 29-06-2020 18:50:00 23.6 C 43 % 10.3 C
1380 29-06-2020 18:55:00 22.9 C 45 % 10.34 C
1381 29-06-2020 19:00:00 22.7 C 46 % 10.49 C
1382 29-06-2020 19:05:00 23 C 46 % 10.76 C
1383 29-06-2020 19:10:00 22.8 C 46 % 10.58 C
1384 29-06-2020 19:15:00 22.7 C 45 % 10.16 C
1385 29-06-2020 19:20:00 22.6 C 47 % 10.72 C
1386 29-06-2020 19:25:00 22.4 C 44 % 9.56 C
1387 29-06-2020 19:30:00 22.1 C 45 % 9.62 C
1388 29-06-2020 19:35:00 21.7 C 45 % 9.26 C
1389 29-06-2020 19:40:00 21.4 C 46 % 9.31 C
1390 29-06-2020 19:45:00 21.3 C 49 % 10.16 C
1391 29-06-2020 19:50:00 21.5 C 47 % 9.72 C
1392 29-06-2020 19:55:00 21.6 C 45 % 9.17 C
1393 29-06-2020 20:00:00 21.3 C 45 % 8.89 C
1394 29-06-2020 20:05:00 20.9 C 48 % 9.49 C
1395 29-06-2020 20:10:00 20.7 C 49 % 9.61 C
1396 29-06-2020 20:15:00 20.4 C 51 % 9.93 C
1397 29-06-2020 20:20:00 20.3 C 50 % 9.54 C
1398 29-06-2020 20:25:00 20.4 C 49 % 9.34 C
1399 29-06-2020 20:30:00 20.7 C 48 % 9.3 C
1400 29-06-2020 20:35:00 20.8 C 47 % 9.08 C
Sensor: Nr:Datum:Temp:Feuchte:Taupunkt:
Aussen-T/F 1401 29-06-2020 20:40:00 20.9 C 48 % 9.49 C
1402 29-06-2020 20:45:00 21 C 47 % 9.27 C
1403 29-06-2020 20:50:00 20.9 C 51 % 10.39 C
1404 29-06-2020 20:55:00 20.8 C 51 % 10.3 C
1405 29-06-2020 21:00:00 20.4 C 50 % 9.64 C
1406 29-06-2020 21:05:00 20.3 C 51 % 9.84 C
1407 29-06-2020 21:10:00 20.2 C 53 % 10.32 C
1408 29-06-2020 21:15:00 19.9 C 53 % 10.04 C
1409 29-06-2020 21:20:00 19.7 C 52 % 9.58 C
1410 29-06-2020 21:25:00 19.6 C 54 % 10.05 C
1411 29-06-2020 21:30:00 19.3 C 55 % 10.04 C
1412 29-06-2020 21:35:00 19.1 C 56 % 10.12 C
1413 29-06-2020 21:40:00 18.9 C 54 % 9.4 C
1414 29-06-2020 21:45:00 18.8 C 58 % 10.37 C
1415 29-06-2020 21:50:00 18.6 C 58 % 10.18 C
1416 29-06-2020 21:55:00 18.4 C 58 % 9.99 C
1417 29-06-2020 22:00:00 18.3 C 60 % 10.41 C
1418 29-06-2020 22:05:00 18.1 C 58 % 9.71 C
1419 29-06-2020 22:10:00 17.9 C 63 % 10.76 C
1420 29-06-2020 22:15:00 17.7 C 63 % 10.57 C
1421 29-06-2020 22:20:00 17.5 C 62 % 10.15 C
1422 29-06-2020 22:25:00 17.3 C 63 % 10.2 C
1423 29-06-2020 22:30:00 17.2 C 63 % 10.1 C
1424 29-06-2020 22:35:00 16.9 C 63 % 9.82 C
1425 29-06-2020 22:40:00 16.8 C 62 % 9.49 C
Sensor: Nr:Datum:Temp:Feuchte:Taupunkt:
Aussen-T/F 1426 29-06-2020 22:45:00 16.7 C 63 % 9.63 C
1427 29-06-2020 22:50:00 16.6 C 62 % 9.3 C
1428 29-06-2020 22:55:00 16.4 C 63 % 9.35 C
1429 29-06-2020 23:00:00 16.3 C 63 % 9.25 C
1430 29-06-2020 23:05:00 16.3 C 65 % 9.71 C
1431 29-06-2020 23:10:00 16.1 C 65 % 9.53 C
1432 29-06-2020 23:15:00 16 C 65 % 9.43 C
1433 29-06-2020 23:20:00 15.8 C 66 % 9.47 C
1434 29-06-2020 23:25:00 15.7 C 68 % 9.82 C
1435 29-06-2020 23:30:00 15.6 C 68 % 9.72 C
1436 29-06-2020 23:35:00 15.4 C 69 % 9.75 C
1437 29-06-2020 23:40:00 15.2 C 70 % 9.77 C
1438 29-06-2020 23:45:00 15.1 C 71 % 9.89 C
1439 29-06-2020 23:50:00 14.9 C 71 % 9.69 C
1440 29-06-2020 23:55:00 14.7 C 72 % 9.71 C
1441 30-06-2020 00:00:00 14.4 C 73 % 9.63 C
1442 30-06-2020 00:05:00 14.3 C 73 % 9.53 C
1443 30-06-2020 00:10:00 14.1 C 74 % 9.54 C
1444 30-06-2020 00:15:00 13.9 C 75 % 9.55 C
1445 30-06-2020 00:20:00 13.8 C 75 % 9.45 C
1446 30-06-2020 00:25:00 13.7 C 76 % 9.55 C
1447 30-06-2020 00:30:00 13.6 C 77 % 9.65 C
1448 30-06-2020 00:35:00 13.4 C 77 % 9.45 C
1449 30-06-2020 00:40:00 13.4 C 78 % 9.65 C
1450 30-06-2020 00:45:00 13.4 C 79 % 9.84 C
Sensor: Nr:Datum:Temp:Feuchte:Taupunkt:
Aussen-T/F 1451 30-06-2020 00:50:00 13.4 C 79 % 9.84 C
1452 30-06-2020 00:55:00 13.4 C 79 % 9.84 C
1453 30-06-2020 01:00:00 13.4 C 79 % 9.84 C
1454 30-06-2020 01:05:00 13.4 C 79 % 9.84 C
1455 30-06-2020 01:10:00 13.4 C 79 % 9.84 C
1456 30-06-2020 01:15:00 13.3 C 79 % 9.74 C
1457 30-06-2020 01:20:00 13.2 C 78 % 9.45 C
1458 30-06-2020 01:25:00 13.2 C 79 % 9.64 C
1459 30-06-2020 01:30:00 13.1 C 78 % 9.36 C
1460 30-06-2020 01:35:00 12.9 C 79 % 9.35 C
1461 30-06-2020 01:40:00 12.8 C 78 % 9.06 C
1462 30-06-2020 01:45:00 12.7 C 79 % 9.16 C
1463 30-06-2020 01:50:00 12.6 C 80 % 9.25 C
1464 30-06-2020 01:55:00 12.5 C 80 % 9.15 C
1465 30-06-2020 02:00:00 12.4 C 80 % 9.05 C
1466 30-06-2020 02:05:00 12.3 C 80 % 8.95 C
1467 30-06-2020 02:10:00 12.2 C 81 % 9.04 C
1468 30-06-2020 02:15:00 12.2 C 82 % 9.22 C
1469 30-06-2020 02:20:00 12.1 C 82 % 9.12 C
1470 30-06-2020 02:25:00 12.1 C 83 % 9.3 C
1471 30-06-2020 02:30:00 12 C 83 % 9.21 C
1472 30-06-2020 02:35:00 11.9 C 84 % 9.29 C
1473 30-06-2020 02:40:00 11.8 C 84 % 9.19 C
1474 30-06-2020 02:45:00 11.7 C 84 % 9.09 C
1475 30-06-2020 02:50:00 11.6 C 84 % 8.99 C
Sensor: Nr:Datum:Temp:Feuchte:Taupunkt:
Aussen-T/F 1476 30-06-2020 02:55:00 11.4 C 85 % 8.97 C
1477 30-06-2020 03:00:00 11.3 C 85 % 8.87 C
1478 30-06-2020 03:05:00 11.3 C 85 % 8.87 C
1479 30-06-2020 03:10:00 11.2 C 86 % 8.95 C
1480 30-06-2020 03:15:00 11.2 C 86 % 8.95 C
1481 30-06-2020 03:20:00 11.1 C 86 % 8.85 C
1482 30-06-2020 03:25:00 11.1 C 87 % 9.02 C
1483 30-06-2020 03:30:00 11 C 87 % 8.92 C
1484 30-06-2020 03:35:00 11 C 87 % 8.92 C
1485 30-06-2020 03:40:00 11 C 88 % 9.09 C
1486 30-06-2020 03:45:00 10.9 C 88 % 8.99 C
1487 30-06-2020 03:50:00 10.9 C 88 % 8.99 C
1488 30-06-2020 03:55:00 10.9 C 88 % 8.99 C
1489 30-06-2020 04:00:00 10.8 C 88 % 8.89 C
1490 30-06-2020 04:05:00 10.8 C 88 % 8.89 C
1491 30-06-2020 04:10:00 10.8 C 88 % 8.89 C
1492 30-06-2020 04:15:00 10.8 C 88 % 8.89 C
1493 30-06-2020 04:20:00 10.7 C 88 % 8.8 C
1494 30-06-2020 04:25:00 10.7 C 89 % 8.96 C
1495 30-06-2020 04:30:00 10.6 C 89 % 8.86 C
1496 30-06-2020 04:35:00 10.6 C 89 % 8.86 C
1497 30-06-2020 04:40:00 10.5 C 89 % 8.77 C
1498 30-06-2020 04:45:00 10.4 C 89 % 8.67 C
1499 30-06-2020 04:50:00 10.4 C 89 % 8.67 C
1500 30-06-2020 04:55:00 10.3 C 89 % 8.57 C
Sensor: Nr:Datum:Temp:Feuchte:Taupunkt:
Aussen-T/F 1501 30-06-2020 05:00:00 10.3 C 89 % 8.57 C
1502 30-06-2020 05:05:00 10.3 C 90 % 8.73 C
1503 30-06-2020 05:10:00 10.2 C 90 % 8.64 C
1504 30-06-2020 05:15:00 10.1 C 90 % 8.54 C
1505 30-06-2020 05:20:00 10.1 C 90 % 8.54 C
1506 30-06-2020 05:25:00 10 C 90 % 8.44 C
1507 30-06-2020 05:30:00 9.9 C 90 % 8.34 C
1508 30-06-2020 05:35:00 9.9 C 91 % 8.5 C
1509 30-06-2020 05:40:00 9.8 C 90 % 8.24 C
1510 30-06-2020 05:45:00 9.8 C 91 % 8.4 C
1511 30-06-2020 05:50:00 9.8 C 91 % 8.4 C
1512 30-06-2020 05:55:00 9.7 C 91 % 8.3 C
1513 30-06-2020 06:00:00 9.7 C 91 % 8.3 C
1514 30-06-2020 06:05:00 9.7 C 91 % 8.3 C
1515 30-06-2020 06:10:00 9.7 C 91 % 8.3 C
1516 30-06-2020 06:15:00 9.7 C 92 % 8.46 C
1517 30-06-2020 06:20:00 9.7 C 92 % 8.46 C
1518 30-06-2020 06:25:00 9.8 C 92 % 8.56 C
1519 30-06-2020 06:30:00 9.8 C 92 % 8.56 C
1520 30-06-2020 06:35:00 9.8 C 92 % 8.56 C
1521 30-06-2020 06:40:00 9.9 C 93 % 8.82 C
1522 30-06-2020 06:45:00 10 C 93 % 8.92 C
1523 30-06-2020 06:50:00 10.1 C 93 % 9.02 C
1524 30-06-2020 06:55:00 10.1 C 93 % 9.02 C
1525 30-06-2020 07:00:00 10.2 C 93 % 9.12 C
Sensor: Nr:Datum:Temp:Feuchte:Taupunkt:
Aussen-T/F 1526 30-06-2020 07:05:00 10.3 C 93 % 9.22 C
1527 30-06-2020 07:10:00 10.4 C 93 % 9.32 C
1528 30-06-2020 07:15:00 10.6 C 93 % 9.52 C
1529 30-06-2020 07:20:00 10.7 C 92 % 9.45 C
1530 30-06-2020 07:25:00 10.9 C 92 % 9.65 C
1531 30-06-2020 07:30:00 11.1 C 92 % 9.85 C
1532 30-06-2020 07:35:00 11.3 C 91 % 9.89 C
1533 30-06-2020 07:40:00 11.6 C 91 % 10.18 C
1534 30-06-2020 07:45:00 11.8 C 90 % 10.21 C
1535 30-06-2020 07:50:00 11.9 C 90 % 10.31 C
1536 30-06-2020 07:55:00 12.2 C 89 % 10.44 C
1537 30-06-2020 08:00:00 12.4 C 89 % 10.64 C
1538 30-06-2020 08:05:00 12.7 C 89 % 10.94 C
1539 30-06-2020 08:10:00 12.9 C 88 % 10.96 C
1540 30-06-2020 08:15:00 13.1 C 87 % 10.99 C
1541 30-06-2020 08:20:00 13.4 C 87 % 11.28 C
1542 30-06-2020 08:25:00 13.6 C 85 % 11.13 C
1543 30-06-2020 08:30:00 13.8 C 84 % 11.15 C
1544 30-06-2020 08:35:00 14.1 C 83 % 11.26 C
1545 30-06-2020 08:40:00 14.3 C 82 % 11.27 C
1546 30-06-2020 08:45:00 14.4 C 80 % 11 C
1547 30-06-2020 08:50:00 14.6 C 79 % 11 C
1548 30-06-2020 08:55:00 14.8 C 79 % 11.2 C
1549 30-06-2020 09:00:00 14.9 C 78 % 11.1 C
1550 30-06-2020 09:05:00 15.1 C 79 % 11.49 C
Sensor: Nr:Datum:Temp:Feuchte:Taupunkt:
Aussen-T/F 1551 30-06-2020 09:10:00 15.3 C 77 % 11.3 C
1552 30-06-2020 09:15:00 15.5 C 76 % 11.29 C
1553 30-06-2020 09:20:00 15.7 C 74 % 11.08 C
1554 30-06-2020 09:25:00 15.9 C 74 % 11.28 C
1555 30-06-2020 09:30:00 16.1 C 73 % 11.26 C
1556 30-06-2020 09:35:00 16.3 C 74 % 11.66 C
1557 30-06-2020 09:40:00 16.5 C 73 % 11.65 C
1558 30-06-2020 09:45:00 16.7 C 72 % 11.63 C
1559 30-06-2020 09:50:00 16.8 C 70 % 11.3 C
1560 30-06-2020 09:55:00 17 C 69 % 11.28 C
1561 30-06-2020 10:00:00 17.1 C 67 % 10.93 C
1562 30-06-2020 10:05:00 17.2 C 67 % 11.02 C
1563 30-06-2020 10:10:00 17.2 C 68 % 11.25 C
1564 30-06-2020 10:15:00 17.3 C 69 % 11.56 C
1565 30-06-2020 10:20:00 17.3 C 67 % 11.12 C
1566 30-06-2020 10:25:00 17.3 C 67 % 11.12 C
1567 30-06-2020 10:30:00 17.3 C 68 % 11.34 C
1568 30-06-2020 10:35:00 17.4 C 68 % 11.44 C
1569 30-06-2020 10:40:00 17.5 C 67 % 11.31 C
1570 30-06-2020 10:45:00 17.4 C 68 % 11.44 C
1571 30-06-2020 10:50:00 17.4 C 67 % 11.21 C
1572 30-06-2020 10:55:00 17.5 C 66 % 11.08 C
1573 30-06-2020 11:00:00 17.5 C 66 % 11.08 C
1574 30-06-2020 11:05:00 17.5 C 65 % 10.85 C
1575 30-06-2020 11:10:00 17.5 C 67 % 11.31 C
Sensor: Nr:Datum:Temp:Feuchte:Taupunkt:
Aussen-T/F 1576 30-06-2020 11:15:00 17.6 C 66 % 11.18 C
1577 30-06-2020 11:20:00 17.7 C 66 % 11.27 C
1578 30-06-2020 11:25:00 17.8 C 66 % 11.37 C
1579 30-06-2020 11:30:00 17.9 C 65 % 11.23 C
1580 30-06-2020 11:35:00 17.9 C 66 % 11.46 C
1581 30-06-2020 11:40:00 18 C 66 % 11.56 C
1582 30-06-2020 11:45:00 18 C 65 % 11.33 C
1583 30-06-2020 11:50:00 18.1 C 66 % 11.65 C
1584 30-06-2020 11:55:00 18.1 C 65 % 11.42 C
1585 30-06-2020 12:00:00 18.1 C 66 % 11.65 C
1586 30-06-2020 12:05:00 18.1 C 66 % 11.65 C
1587 30-06-2020 12:10:00 18.1 C 66 % 11.65 C
1588 30-06-2020 12:15:00 18.1 C 66 % 11.65 C
1589 30-06-2020 12:20:00 18.1 C 66 % 11.65 C
1590 30-06-2020 12:25:00 18.1 C 65 % 11.42 C
1591 30-06-2020 12:30:00 18.1 C 65 % 11.42 C
1592 30-06-2020 12:35:00 18.1 C 66 % 11.65 C
1593 30-06-2020 12:40:00 18.2 C 67 % 11.98 C
1594 30-06-2020 12:45:00 18.4 C 65 % 11.71 C
1595 30-06-2020 12:50:00 18.7 C 64 % 11.76 C
1596 30-06-2020 12:55:00 18.8 C 64 % 11.85 C
1597 30-06-2020 13:00:00 18.9 C 63 % 11.71 C
1598 30-06-2020 13:05:00 19.1 C 63 % 11.9 C
1599 30-06-2020 13:10:00 19.3 C 63 % 12.09 C
1600 30-06-2020 13:15:00 19.4 C 63 % 12.18 C
Sensor: Nr:Datum:Temp:Feuchte:Taupunkt:
Aussen-T/F 1601 30-06-2020 13:20:00 19.5 C 62 % 12.03 C
1602 30-06-2020 13:25:00 19.6 C 62 % 12.13 C
1603 30-06-2020 13:30:00 19.8 C 62 % 12.31 C
1604 30-06-2020 13:35:00 19.9 C 61 % 12.16 C
1605 30-06-2020 13:40:00 20.1 C 61 % 12.35 C
1606 30-06-2020 13:45:00 20.2 C 59 % 11.94 C
1607 30-06-2020 13:50:00 20.2 C 60 % 12.19 C
1608 30-06-2020 13:55:00 20.3 C 60 % 12.29 C
1609 30-06-2020 14:00:00 20.4 C 58 % 11.86 C
1610 30-06-2020 14:05:00 20.5 C 59 % 12.22 C
1611 30-06-2020 14:10:00 20.5 C 59 % 12.22 C
1612 30-06-2020 14:15:00 20.5 C 58 % 11.96 C
1613 30-06-2020 14:20:00 20.8 C 58 % 12.24 C
1614 30-06-2020 14:25:00 21.1 C 56 % 11.99 C
1615 30-06-2020 14:30:00 21.2 C 58 % 12.61 C
1616 30-06-2020 14:35:00 21.2 C 57 % 12.35 C
1617 30-06-2020 14:40:00 21.1 C 57 % 12.25 C
1618 30-06-2020 14:45:00 21 C 55 % 11.62 C
1619 30-06-2020 14:50:00 21.2 C 57 % 12.35 C
1620 30-06-2020 14:55:00 21.3 C 55 % 11.9 C
1621 30-06-2020 15:00:00 21.2 C 55 % 11.81 C
1622 30-06-2020 15:05:00 21.3 C 58 % 12.71 C
1623 30-06-2020 15:10:00 21.4 C 56 % 12.27 C
1624 30-06-2020 15:15:00 21.3 C 56 % 12.17 C
1625 30-06-2020 15:20:00 21.4 C 56 % 12.27 C
Sensor: Nr:Datum:Temp:Feuchte:Taupunkt:
Aussen-T/F 1626 30-06-2020 15:25:00 21.8 C 56 % 12.64 C
1627 30-06-2020 15:30:00 22 C 54 % 12.27 C
1628 30-06-2020 15:35:00 21.8 C 55 % 12.36 C
1629 30-06-2020 15:40:00 21.7 C 56 % 12.54 C
1630 30-06-2020 15:45:00 21.7 C 55 % 12.27 C
1631 30-06-2020 15:50:00 21.4 C 56 % 12.27 C
1632 30-06-2020 15:55:00 21.3 C 57 % 12.44 C
1633 30-06-2020 16:00:00 21.6 C 57 % 12.72 C
1634 30-06-2020 16:05:00 21.8 C 57 % 12.91 C
1635 30-06-2020 16:10:00 21.7 C 57 % 12.81 C
1636 30-06-2020 16:15:00 21.9 C 58 % 13.27 C
1637 30-06-2020 16:20:00 22.2 C 55 % 12.73 C
1638 30-06-2020 16:25:00 22.4 C 56 % 13.2 C
1639 30-06-2020 16:30:00 22.8 C 53 % 12.73 C
1640 30-06-2020 16:35:00 22.6 C 53 % 12.54 C
1641 30-06-2020 16:40:00 22.4 C 55 % 12.92 C
1642 30-06-2020 16:45:00 22.2 C 54 % 12.45 C
1643 30-06-2020 16:50:00 22.1 C 56 % 12.92 C
1644 30-06-2020 16:55:00 22.2 C 56 % 13.01 C
1645 30-06-2020 17:00:00 22.5 C 54 % 12.73 C
1646 30-06-2020 17:05:00 22.5 C 56 % 13.29 C
1647 30-06-2020 17:10:00 22.8 C 52 % 12.43 C
1648 30-06-2020 17:15:00 23 C 52 % 12.62 C
1649 30-06-2020 17:20:00 23.4 C 51 % 12.69 C
1650 30-06-2020 17:25:00 23.3 C 52 % 12.9 C
Sensor: Nr:Datum:Temp:Feuchte:Taupunkt:
Aussen-T/F 1651 30-06-2020 17:30:00 23.4 C 51 % 12.69 C
1652 30-06-2020 17:35:00 23.3 C 52 % 12.9 C
1653 30-06-2020 17:40:00 23.6 C 52 % 13.17 C
1654 30-06-2020 17:45:00 23.9 C 50 % 12.85 C
1655 30-06-2020 17:50:00 23.7 C 50 % 12.67 C
1656 30-06-2020 17:55:00 23.1 C 52 % 12.71 C
1657 30-06-2020 18:00:00 22.7 C 53 % 12.63 C
1658 30-06-2020 18:05:00 22.9 C 53 % 12.82 C
1659 30-06-2020 18:10:00 23.4 C 52 % 12.99 C
1660 30-06-2020 18:15:00 23.6 C 51 % 12.88 C
1661 30-06-2020 18:20:00 23.5 C 51 % 12.78 C
1662 30-06-2020 18:25:00 23 C 52 % 12.62 C
1663 30-06-2020 18:30:00 22.7 C 53 % 12.63 C
1664 30-06-2020 18:35:00 22.8 C 52 % 12.43 C
1665 30-06-2020 18:40:00 22.5 C 53 % 12.45 C
1666 30-06-2020 18:45:00 22.1 C 55 % 12.64 C
1667 30-06-2020 18:50:00 21.9 C 56 % 12.73 C
1668 30-06-2020 18:55:00 21.7 C 58 % 13.08 C
1669 30-06-2020 19:00:00 21.7 C 57 % 12.81 C
1670 30-06-2020 19:05:00 21.8 C 57 % 12.91 C
1671 30-06-2020 19:10:00 21.6 C 57 % 12.72 C
1672 30-06-2020 19:15:00 21.4 C 59 % 13.06 C
1673 30-06-2020 19:20:00 21.3 C 59 % 12.97 C
1674 30-06-2020 19:25:00 21.3 C 59 % 12.97 C
1675 30-06-2020 19:30:00 21.2 C 59 % 12.87 C
Sensor: Nr:Datum:Temp:Feuchte:Taupunkt:
Aussen-T/F 1676 30-06-2020 19:35:00 21.2 C 60 % 13.13 C
1677 30-06-2020 19:40:00 21.1 C 60 % 13.04 C
1678 30-06-2020 19:45:00 21.1 C 60 % 13.04 C
1679 30-06-2020 19:50:00 21.1 C 60 % 13.04 C
1680 30-06-2020 19:55:00 21.1 C 61 % 13.29 C
1681 30-06-2020 20:00:00 21.3 C 61 % 13.48 C
1682 30-06-2020 20:05:00 21.4 C 61 % 13.57 C
1683 30-06-2020 20:10:00 21.4 C 62 % 13.82 C
1684 30-06-2020 20:15:00 21.2 C 61 % 13.38 C
1685 30-06-2020 20:20:00 21 C 62 % 13.44 C
1686 30-06-2020 20:25:00 20.9 C 62 % 13.35 C
1687 30-06-2020 20:30:00 20.8 C 62 % 13.26 C
1688 30-06-2020 20:35:00 20.8 C 62 % 13.26 C
1689 30-06-2020 20:40:00 20.7 C 63 % 13.41 C
1690 30-06-2020 20:45:00 20.7 C 63 % 13.41 C
1691 30-06-2020 20:50:00 20.6 C 63 % 13.31 C
1692 30-06-2020 20:55:00 20.5 C 63 % 13.22 C
1693 30-06-2020 21:00:00 20.4 C 64 % 13.37 C
1694 30-06-2020 21:05:00 20.4 C 65 % 13.6 C
1695 30-06-2020 21:10:00 20.4 C 66 % 13.84 C
1696 30-06-2020 21:15:00 20.3 C 66 % 13.74 C
1697 30-06-2020 21:20:00 20.1 C 65 % 13.32 C
1698 30-06-2020 21:25:00 20.1 C 67 % 13.78 C
1699 30-06-2020 21:30:00 20 C 66 % 13.46 C
1700 30-06-2020 21:35:00 19.9 C 68 % 13.82 C
Sensor: Nr:Datum:Temp:Feuchte:Taupunkt:
Aussen-T/F 1701 30-06-2020 21:40:00 19.9 C 68 % 13.82 C
1702 30-06-2020 21:45:00 19.8 C 68 % 13.73 C
1703 30-06-2020 21:50:00 19.7 C 68 % 13.63 C
1704 30-06-2020 21:55:00 19.7 C 69 % 13.86 C
1705 30-06-2020 22:00:00 19.6 C 70 % 13.98 C
1706 30-06-2020 22:05:00 19.4 C 70 % 13.79 C
1707 30-06-2020 22:10:00 19.3 C 71 % 13.91 C
1708 30-06-2020 22:15:00 19.2 C 71 % 13.82 C
1709 30-06-2020 22:20:00 19.1 C 71 % 13.72 C
1710 30-06-2020 22:25:00 19 C 72 % 13.84 C
1711 30-06-2020 22:30:00 18.9 C 73 % 13.96 C
1712 30-06-2020 22:35:00 18.8 C 73 % 13.86 C
1713 30-06-2020 22:40:00 18.8 C 73 % 13.86 C
1714 30-06-2020 22:45:00 18.8 C 72 % 13.65 C
1715 30-06-2020 22:50:00 18.8 C 73 % 13.86 C
1716 30-06-2020 22:55:00 18.8 C 72 % 13.65 C
1717 30-06-2020 23:00:00 18.9 C 72 % 13.74 C
1718 30-06-2020 23:05:00 19 C 72 % 13.84 C
1719 30-06-2020 23:10:00 19.1 C 71 % 13.72 C
1720 30-06-2020 23:15:00 19.2 C 71 % 13.82 C
1721 30-06-2020 23:20:00 19.2 C 72 % 14.03 C
1722 30-06-2020 23:25:00 19.2 C 71 % 13.82 C
1723 30-06-2020 23:30:00 19.3 C 71 % 13.91 C
1724 30-06-2020 23:35:00 19.3 C 71 % 13.91 C
1725 30-06-2020 23:40:00 19.3 C 71 % 13.91 C
Sensor: Nr:Datum:Temp:Feuchte:Taupunkt:
Aussen-T/F 1726 30-06-2020 23:45:00 19.3 C 71 % 13.91 C
1727 30-06-2020 23:50:00 19.3 C 71 % 13.91 C
1728 30-06-2020 23:55:00 19.4 C 70 % 13.79 C
1729 01-07-2020 00:00:00 19.4 C 70 % 13.79 C
1730 01-07-2020 00:05:00 19.4 C 70 % 13.79 C
1731 01-07-2020 00:10:00 19.4 C 70 % 13.79 C
1732 01-07-2020 00:15:00 19.4 C 70 % 13.79 C
1733 01-07-2020 00:20:00 19.4 C 70 % 13.79 C
1734 01-07-2020 00:25:00 19.5 C 70 % 13.89 C
1735 01-07-2020 00:30:00 19.4 C 70 % 13.79 C
1736 01-07-2020 00:35:00 19.4 C 71 % 14.01 C
1737 01-07-2020 00:40:00 19.4 C 71 % 14.01 C
1738 01-07-2020 00:45:00 19.4 C 71 % 14.01 C
1739 01-07-2020 00:50:00 19.4 C 71 % 14.01 C
1740 01-07-2020 00:55:00 19.4 C 71 % 14.01 C
1741 01-07-2020 01:00:00 19.4 C 71 % 14.01 C
1742 01-07-2020 01:05:00 19.3 C 72 % 14.13 C
1743 01-07-2020 01:10:00 19.3 C 72 % 14.13 C
1744 01-07-2020 01:15:00 19.3 C 72 % 14.13 C
1745 01-07-2020 01:20:00 19.2 C 72 % 14.03 C
1746 01-07-2020 01:25:00 19.1 C 72 % 13.94 C
1747 01-07-2020 01:30:00 19.1 C 73 % 14.15 C
1748 01-07-2020 01:35:00 18.9 C 73 % 13.96 C
1749 01-07-2020 01:40:00 18.8 C 73 % 13.86 C
1750 01-07-2020 01:45:00 18.7 C 74 % 13.97 C
Sensor: Nr:Datum:Temp:Feuchte:Taupunkt:
Aussen-T/F 1751 01-07-2020 01:50:00 18.7 C 74 % 13.97 C
1752 01-07-2020 01:55:00 18.5 C 74 % 13.78 C
1753 01-07-2020 02:00:00 18.4 C 75 % 13.89 C
1754 01-07-2020 02:05:00 18.3 C 75 % 13.79 C
1755 01-07-2020 02:10:00 18.2 C 76 % 13.9 C
1756 01-07-2020 02:15:00 18.2 C 76 % 13.9 C
1757 01-07-2020 02:20:00 18.1 C 76 % 13.81 C
1758 01-07-2020 02:25:00 18 C 77 % 13.91 C
1759 01-07-2020 02:30:00 18 C 76 % 13.71 C
1760 01-07-2020 02:35:00 18.1 C 76 % 13.81 C
1761 01-07-2020 02:40:00 18.1 C 76 % 13.81 C
1762 01-07-2020 02:45:00 18.2 C 76 % 13.9 C
1763 01-07-2020 02:50:00 18.2 C 76 % 13.9 C
1764 01-07-2020 02:55:00 18.3 C 76 % 14 C
1765 01-07-2020 03:00:00 18.2 C 76 % 13.9 C
1766 01-07-2020 03:05:00 18.2 C 76 % 13.9 C
1767 01-07-2020 03:10:00 18.2 C 77 % 14.1 C
1768 01-07-2020 03:15:00 18.1 C 77 % 14.01 C
1769 01-07-2020 03:20:00 17.9 C 77 % 13.81 C
1770 01-07-2020 03:25:00 17.8 C 78 % 13.91 C
1771 01-07-2020 03:30:00 17.7 C 78 % 13.82 C
1772 01-07-2020 03:35:00 17.6 C 79 % 13.92 C
1773 01-07-2020 03:40:00 17.5 C 80 % 14.01 C
1774 01-07-2020 03:45:00 17.4 C 80 % 13.92 C
1775 01-07-2020 03:50:00 17.4 C 80 % 13.92 C
Sensor: Nr:Datum:Temp:Feuchte:Taupunkt:
Aussen-T/F 1776 01-07-2020 03:55:00 17.4 C 80 % 13.92 C
1777 01-07-2020 04:00:00 17.4 C 80 % 13.92 C
1778 01-07-2020 04:05:00 17.4 C 80 % 13.92 C
1779 01-07-2020 04:10:00 17.3 C 80 % 13.82 C
1780 01-07-2020 04:15:00 17.3 C 80 % 13.82 C
1781 01-07-2020 04:20:00 17.3 C 80 % 13.82 C
1782 01-07-2020 04:25:00 17.2 C 81 % 13.91 C
1783 01-07-2020 04:30:00 17.2 C 80 % 13.72 C
1784 01-07-2020 04:35:00 17.1 C 81 % 13.82 C
1785 01-07-2020 04:40:00 17.1 C 81 % 13.82 C
1786 01-07-2020 04:45:00 16.9 C 82 % 13.81 C
1787 01-07-2020 04:50:00 16.9 C 82 % 13.81 C
1788 01-07-2020 04:55:00 16.8 C 82 % 13.71 C
1789 01-07-2020 05:00:00 16.8 C 82 % 13.71 C
1790 01-07-2020 05:05:00 16.8 C 82 % 13.71 C
1791 01-07-2020 05:10:00 16.8 C 82 % 13.71 C
1792 01-07-2020 05:15:00 16.8 C 83 % 13.9 C
1793 01-07-2020 05:20:00 16.8 C 83 % 13.9 C
1794 01-07-2020 05:25:00 16.7 C 83 % 13.8 C
1795 01-07-2020 05:30:00 16.6 C 83 % 13.7 C
1796 01-07-2020 05:35:00 16.5 C 83 % 13.6 C
1797 01-07-2020 05:40:00 16.3 C 84 % 13.59 C
1798 01-07-2020 05:45:00 16.2 C 84 % 13.5 C
1799 01-07-2020 05:50:00 16.1 C 85 % 13.58 C
1800 01-07-2020 05:55:00 16.1 C 85 % 13.58 C
Sensor: Nr:Datum:Temp:Feuchte:Taupunkt:
Aussen-T/F 1801 01-07-2020 06:00:00 16 C 86 % 13.66 C
1802 01-07-2020 06:05:00 15.9 C 86 % 13.56 C
1803 01-07-2020 06:10:00 15.8 C 86 % 13.46 C
1804 01-07-2020 06:15:00 15.8 C 87 % 13.64 C
1805 01-07-2020 06:20:00 15.7 C 87 % 13.54 C
1806 01-07-2020 06:25:00 15.7 C 87 % 13.54 C
1807 01-07-2020 06:30:00 15.7 C 87 % 13.54 C
1808 01-07-2020 06:35:00 15.6 C 88 % 13.62 C
1809 01-07-2020 06:40:00 15.6 C 88 % 13.62 C
1810 01-07-2020 06:45:00 15.6 C 88 % 13.62 C
1811 01-07-2020 06:50:00 15.6 C 88 % 13.62 C
1812 01-07-2020 06:55:00 15.6 C 89 % 13.79 C
1813 01-07-2020 07:00:00 15.7 C 89 % 13.89 C
1814 01-07-2020 07:05:00 15.7 C 90 % 14.06 C
1815 01-07-2020 07:10:00 15.9 C 90 % 14.26 C
1816 01-07-2020 07:15:00 16.1 C 89 % 14.29 C
1817 01-07-2020 07:20:00 16.3 C 89 % 14.48 C
1818 01-07-2020 07:25:00 16.5 C 89 % 14.68 C
1819 01-07-2020 07:30:00 16.7 C 89 % 14.88 C
1820 01-07-2020 07:35:00 17.1 C 87 % 14.92 C
1821 01-07-2020 07:40:00 17.2 C 86 % 14.84 C
1822 01-07-2020 07:45:00 17.4 C 85 % 14.85 C
1823 01-07-2020 07:50:00 17.6 C 84 % 14.87 C
1824 01-07-2020 07:55:00 17.9 C 82 % 14.78 C
1825 01-07-2020 08:00:00 18.2 C 81 % 14.89 C
Sensor: Nr:Datum:Temp:Feuchte:Taupunkt:
Aussen-T/F 1826 01-07-2020 08:05:00 18.4 C 80 % 14.89 C
1827 01-07-2020 08:10:00 18.6 C 80 % 15.08 C
1828 01-07-2020 08:15:00 18.7 C 79 % 14.99 C
1829 01-07-2020 08:20:00 18.8 C 79 % 15.08 C
1830 01-07-2020 08:25:00 19 C 79 % 15.28 C
1831 01-07-2020 08:30:00 19.2 C 78 % 15.27 C
1832 01-07-2020 08:35:00 19.3 C 78 % 15.37 C
1833 01-07-2020 08:40:00 19.5 C 77 % 15.36 C
1834 01-07-2020 08:45:00 19.7 C 77 % 15.56 C
1835 01-07-2020 08:50:00 19.8 C 77 % 15.65 C
1836 01-07-2020 08:55:00 19.9 C 76 % 15.54 C
1837 01-07-2020 09:00:00 20.1 C 76 % 15.74 C
1838 01-07-2020 09:05:00 20.3 C 75 % 15.72 C
1839 01-07-2020 09:10:00 20.3 C 75 % 15.72 C
1840 01-07-2020 09:15:00 20.6 C 76 % 16.22 C
1841 01-07-2020 09:20:00 20.8 C 75 % 16.21 C
1842 01-07-2020 09:25:00 21.1 C 74 % 16.29 C
1843 01-07-2020 09:30:00 21.2 C 74 % 16.38 C
1844 01-07-2020 09:35:00 21.2 C 73 % 16.17 C
1845 01-07-2020 09:40:00 21.2 C 74 % 16.38 C
1846 01-07-2020 09:45:00 21.3 C 74 % 16.48 C
1847 01-07-2020 09:50:00 21.3 C 73 % 16.26 C
1848 01-07-2020 09:55:00 21.3 C 73 % 16.26 C
1849 01-07-2020 10:00:00 21.4 C 74 % 16.57 C
1850 01-07-2020 10:05:00 21.4 C 73 % 16.36 C
Sensor: Nr:Datum:Temp:Feuchte:Taupunkt:
Aussen-T/F 1851 01-07-2020 10:10:00 21.5 C 74 % 16.67 C
1852 01-07-2020 10:15:00 21.6 C 74 % 16.77 C
1853 01-07-2020 10:20:00 21.7 C 72 % 16.43 C
1854 01-07-2020 10:25:00 21.6 C 73 % 16.55 C
1855 01-07-2020 10:30:00 21.6 C 73 % 16.55 C
1856 01-07-2020 10:35:00 21.6 C 73 % 16.55 C
1857 01-07-2020 10:40:00 21.6 C 73 % 16.55 C
1858 01-07-2020 10:45:00 21.6 C 73 % 16.55 C
1859 01-07-2020 10:50:00 21.5 C 73 % 16.46 C
1860 01-07-2020 10:55:00 21.5 C 73 % 16.46 C
1861 01-07-2020 11:00:00 21.6 C 73 % 16.55 C
1862 01-07-2020 11:05:00 21.7 C 73 % 16.65 C
1863 01-07-2020 11:10:00 21.7 C 71 % 16.21 C
1864 01-07-2020 11:15:00 21.7 C 71 % 16.21 C
1865 01-07-2020 11:20:00 21.8 C 71 % 16.31 C
1866 01-07-2020 11:25:00 21.9 C 72 % 16.62 C
1867 01-07-2020 11:30:00 22.1 C 72 % 16.82 C
1868 01-07-2020 11:35:00 22.3 C 72 % 17.01 C
1869 01-07-2020 11:40:00 22.4 C 70 % 16.66 C
1870 01-07-2020 11:45:00 22.6 C 70 % 16.85 C
1871 01-07-2020 11:50:00 22.7 C 69 % 16.72 C
1872 01-07-2020 11:55:00 23 C 69 % 17.01 C
1873 01-07-2020 12:00:00 23.2 C 67 % 16.73 C
1874 01-07-2020 12:05:00 23.3 C 67 % 16.83 C
1875 01-07-2020 12:10:00 23.4 C 66 % 16.69 C
Sensor: Nr:Datum:Temp:Feuchte:Taupunkt:
Aussen-T/F 1876 01-07-2020 12:15:00 23.6 C 65 % 16.64 C
1877 01-07-2020 12:20:00 23.4 C 66 % 16.69 C
1878 01-07-2020 12:25:00 23.6 C 65 % 16.64 C
1879 01-07-2020 12:30:00 23.6 C 66 % 16.88 C
1880 01-07-2020 12:35:00 23.7 C 65 % 16.73 C
1881 01-07-2020 12:40:00 23.7 C 64 % 16.49 C
1882 01-07-2020 12:45:00 23.8 C 65 % 16.83 C
1883 01-07-2020 12:50:00 23.8 C 64 % 16.58 C
1884 01-07-2020 12:55:00 23.7 C 64 % 16.49 C
1885 01-07-2020 13:00:00 23.9 C 65 % 16.92 C
1886 01-07-2020 13:05:00 24.1 C 65 % 17.11 C
1887 01-07-2020 13:10:00 24.2 C 64 % 16.96 C
1888 01-07-2020 13:15:00 24.2 C 63 % 16.71 C
1889 01-07-2020 13:20:00 24.2 C 64 % 16.96 C
1890 01-07-2020 13:25:00 24.1 C 64 % 16.86 C
1891 01-07-2020 13:30:00 24.1 C 64 % 16.86 C
1892 01-07-2020 13:35:00 24 C 64 % 16.77 C
1893 01-07-2020 13:40:00 24.1 C 64 % 16.86 C
1894 01-07-2020 13:45:00 24.1 C 64 % 16.86 C
1895 01-07-2020 13:50:00 24 C 64 % 16.77 C
1896 01-07-2020 13:55:00 24.1 C 64 % 16.86 C
1897 01-07-2020 14:00:00 24.3 C 63 % 16.81 C
1898 01-07-2020 14:05:00 24.6 C 62 % 16.84 C
1899 01-07-2020 14:10:00 24.6 C 62 % 16.84 C
1900 01-07-2020 14:15:00 24.3 C 62 % 16.55 C
Sensor: Nr:Datum:Temp:Feuchte:Taupunkt:
Aussen-T/F 1901 01-07-2020 14:20:00 24.4 C 63 % 16.9 C
1902 01-07-2020 14:25:00 24.7 C 61 % 16.67 C
1903 01-07-2020 14:30:00 25.1 C 61 % 17.05 C
1904 01-07-2020 14:35:00 25.2 C 61 % 17.14 C
1905 01-07-2020 14:40:00 25.1 C 61 % 17.05 C
1906 01-07-2020 14:45:00 24.7 C 63 % 17.18 C
1907 01-07-2020 14:50:00 24.8 C 63 % 17.28 C
1908 01-07-2020 14:55:00 24.6 C 64 % 17.34 C
1909 01-07-2020 15:00:00 24.5 C 62 % 16.74 C
1910 01-07-2020 15:05:00 24.4 C 63 % 16.9 C
1911 01-07-2020 15:10:00 24.4 C 63 % 16.9 C
1912 01-07-2020 15:15:00 24.4 C 63 % 16.9 C
1913 01-07-2020 15:20:00 24.4 C 63 % 16.9 C
1914 01-07-2020 15:25:00 24.6 C 63 % 17.09 C
1915 01-07-2020 15:30:00 24.8 C 63 % 17.28 C
1916 01-07-2020 15:35:00 24.8 C 62 % 17.02 C
1917 01-07-2020 15:40:00 24.9 C 63 % 17.37 C
1918 01-07-2020 15:45:00 25.1 C 62 % 17.31 C
1919 01-07-2020 15:50:00 25.2 C 62 % 17.4 C
1920 01-07-2020 15:55:00 25.2 C 60 % 16.88 C
1921 01-07-2020 16:00:00 25.2 C 61 % 17.14 C
1922 01-07-2020 16:05:00 25.3 C 62 % 17.5 C
1923 01-07-2020 16:10:00 25.3 C 62 % 17.5 C
1924 01-07-2020 16:15:00 25.2 C 60 % 16.88 C
1925 01-07-2020 16:20:00 24.9 C 61 % 16.86 C
Sensor: Nr:Datum:Temp:Feuchte:Taupunkt:
Aussen-T/F 1926 01-07-2020 16:25:00 24.7 C 62 % 16.93 C
1927 01-07-2020 16:30:00 24.8 C 63 % 17.28 C
1928 01-07-2020 16:35:00 24.9 C 63 % 17.37 C
1929 01-07-2020 16:40:00 25.3 C 62 % 17.5 C
1930 01-07-2020 16:45:00 25.6 C 62 % 17.78 C
1931 01-07-2020 16:50:00 25.7 C 60 % 17.35 C
1932 01-07-2020 16:55:00 25.6 C 60 % 17.26 C
1933 01-07-2020 17:00:00 25.4 C 60 % 17.07 C
1934 01-07-2020 17:05:00 25.3 C 61 % 17.24 C
1935 01-07-2020 17:10:00 25.3 C 61 % 17.24 C
1936 01-07-2020 17:15:00 25.4 C 62 % 17.59 C
1937 01-07-2020 17:20:00 25.6 C 59 % 16.99 C
1938 01-07-2020 17:25:00 25.3 C 61 % 17.24 C
1939 01-07-2020 17:30:00 25.5 C 60 % 17.16 C
1940 01-07-2020 17:35:00 25.9 C 59 % 17.27 C
1941 01-07-2020 17:40:00 26.4 C 58 % 17.47 C
1942 01-07-2020 17:45:00 26.2 C 56 % 16.73 C
1943 01-07-2020 17:50:00 25.7 C 57 % 16.54 C
1944 01-07-2020 17:55:00 25.4 C 59 % 16.81 C
1945 01-07-2020 18:00:00 25.4 C 60 % 17.07 C
1946 01-07-2020 18:05:00 25.3 C 59 % 16.71 C
1947 01-07-2020 18:10:00 25.3 C 58 % 16.44 C
1948 01-07-2020 18:15:00 25.2 C 59 % 16.62 C
1949 01-07-2020 18:20:00 25.1 C 59 % 16.52 C
1950 01-07-2020 18:25:00 25.2 C 60 % 16.88 C
Sensor: Nr:Datum:Temp:Feuchte:Taupunkt:
Aussen-T/F 1951 01-07-2020 18:30:00 25.1 C 59 % 16.52 C
1952 01-07-2020 18:35:00 24.9 C 60 % 16.6 C
1953 01-07-2020 18:40:00 24.8 C 61 % 16.77 C
1954 01-07-2020 18:45:00 24.8 C 61 % 16.77 C
1955 01-07-2020 18:50:00 24.8 C 61 % 16.77 C
1956 01-07-2020 18:55:00 24.8 C 61 % 16.77 C
1957 01-07-2020 19:00:00 24.7 C 61 % 16.67 C
1958 01-07-2020 19:05:00 24.6 C 61 % 16.58 C
1959 01-07-2020 19:10:00 24.5 C 62 % 16.74 C
1960 01-07-2020 19:15:00 24.5 C 63 % 16.99 C
1961 01-07-2020 19:20:00 24.6 C 62 % 16.84 C
1962 01-07-2020 19:25:00 24.7 C 62 % 16.93 C
1963 01-07-2020 19:30:00 24.8 C 61 % 16.77 C
1964 01-07-2020 19:35:00 24.6 C 62 % 16.84 C
1965 01-07-2020 19:40:00 24.4 C 63 % 16.9 C
1966 01-07-2020 19:45:00 24.3 C 62 % 16.55 C
1967 01-07-2020 19:50:00 24.3 C 63 % 16.81 C
1968 01-07-2020 19:55:00 24.2 C 64 % 16.96 C
1969 01-07-2020 20:00:00 24.2 C 64 % 16.96 C
1970 01-07-2020 20:05:00 24.1 C 64 % 16.86 C
1971 01-07-2020 20:10:00 24.1 C 64 % 16.86 C
1972 01-07-2020 20:15:00 24.1 C 65 % 17.11 C
1973 01-07-2020 20:20:00 24.2 C 63 % 16.71 C
1974 01-07-2020 20:25:00 24.4 C 63 % 16.9 C
1975 01-07-2020 20:30:00 24.7 C 62 % 16.93 C
Sensor: Nr:Datum:Temp:Feuchte:Taupunkt:
Aussen-T/F 1976 01-07-2020 20:35:00 24.8 C 61 % 16.77 C
1977 01-07-2020 20:40:00 24.9 C 62 % 17.12 C
1978 01-07-2020 20:45:00 25 C 61 % 16.96 C
1979 01-07-2020 20:50:00 25.1 C 61 % 17.05 C
1980 01-07-2020 20:55:00 24.8 C 61 % 16.77 C
1981 01-07-2020 21:00:00 24.4 C 62 % 16.65 C
1982 01-07-2020 21:05:00 24.2 C 63 % 16.71 C
1983 01-07-2020 21:10:00 23.9 C 64 % 16.68 C
1984 01-07-2020 21:15:00 23.7 C 65 % 16.73 C
1985 01-07-2020 21:20:00 23.6 C 65 % 16.64 C
1986 01-07-2020 21:25:00 23.3 C 66 % 16.59 C
1987 01-07-2020 21:30:00 23.2 C 66 % 16.5 C
1988 01-07-2020 21:35:00 23 C 67 % 16.54 C
1989 01-07-2020 21:40:00 22.8 C 67 % 16.35 C
1990 01-07-2020 21:45:00 22.7 C 68 % 16.49 C
1991 01-07-2020 21:50:00 22.7 C 68 % 16.49 C
1992 01-07-2020 21:55:00 22.6 C 68 % 16.39 C
1993 01-07-2020 22:00:00 22.6 C 69 % 16.62 C
1994 01-07-2020 22:05:00 22.6 C 69 % 16.62 C
1995 01-07-2020 22:10:00 22.4 C 70 % 16.66 C
1996 01-07-2020 22:15:00 22.3 C 70 % 16.56 C
1997 01-07-2020 22:20:00 22.2 C 70 % 16.47 C
1998 01-07-2020 22:25:00 22.2 C 71 % 16.69 C
1999 01-07-2020 22:30:00 22.1 C 71 % 16.6 C
2000 01-07-2020 22:35:00 22 C 72 % 16.72 C
Sensor: Nr:Datum:Temp:Feuchte:Taupunkt:
Aussen-T/F 2001 01-07-2020 22:40:00 21.9 C 72 % 16.62 C
2002 01-07-2020 22:45:00 21.8 C 73 % 16.75 C
2003 01-07-2020 22:50:00 21.7 C 73 % 16.65 C
2004 01-07-2020 22:55:00 21.7 C 73 % 16.65 C
2005 01-07-2020 23:00:00 21.7 C 75 % 17.07 C
2006 01-07-2020 23:05:00 21.4 C 76 % 16.99 C
2007 01-07-2020 23:10:00 21 C 78 % 17.02 C
2008 01-07-2020 23:15:00 20.7 C 80 % 17.13 C
2009 01-07-2020 23:20:00 20.2 C 82 % 17.03 C
2010 01-07-2020 23:25:00 19.5 C 84 % 16.72 C
2011 01-07-2020 23:30:00 18.9 C 87 % 16.69 C
2012 01-07-2020 23:35:00 18.6 C 88 % 16.57 C
2013 01-07-2020 23:40:00 18.3 C 89 % 16.46 C
2014 01-07-2020 23:45:00 18.2 C 90 % 16.53 C
2015 01-07-2020 23:50:00 18.1 C 90 % 16.43 C
2016 01-07-2020 23:55:00 18 C 91 % 16.51 C

Legende:
   Min
   Max


Maximal/Minimal-Werte vom 25.06.2020 - 01.07.2020

Sensor Min Max Avg
Temp
(Aussen-T/F)
9.7 °C
30-06-2020  05:55:00
32.1 °C
26-06-2020  16:40:00
20.26 °C
Feuchte
(Aussen-T/F)
37 %
26-06-2020  16:40:00
95 %
29-06-2020  10:20:00
71.11 %
Taupunkt
(Aussen-T/F)
8.24 C
30-06-2020  05:40:00
19.08 C
26-06-2020  17:45:00
14.47 C

Die Daten stammen von einer Davis Vantage Pro 2 Wetter-Station und werden unter Linux mit der Software wview2wettercgi und aufbereitet. Alle Angaben erfolgen ohne Gewähr für ihre Vollständigkeit oder Richtigkeit.
Kontakt: Rainer Krienke krienke@uni-koblenz.de . Meine Webseiten an der Uni Koblenz oder privat.
Version: $Revision: 0.78 $